GFSWCAN_prec_precacc12_060.txt.gz
Total_Precipitation_Accumulation
0.19 0.22 0.24 0.23 0.26 0.23 0.21 0.26 0.27 0.26 0.19 0.18 0.15 0.12 0.14 0.11 0.21 0.19 0.30 0.20 0.15 0.15 0.08 0.17 0.15 0.04 0.00 0.02 0.01 0.00 0.00 0.00 0.02 0.05 0.04 0.02 0.01 0.00 0.00 0.00 0.00 0.00 0.00 0.00 0.00 0.00 0.00 0.00 0.00 0.00 0.00 0.00 0.00 0.00
0.22 0.19 0.20 0.20 0.19 0.16 0.17 0.23 0.23 0.22 0.19 0.17 0.15 0.15 0.15 0.12 0.22 0.21 0.25 0.30 0.14 0.12 0.13 0.10 0.14 0.08 0.00 0.00 0.00 0.00 0.00 0.00 0.01 0.03 0.02 0.03 0.00 0.00 0.00 0.00 0.00 0.01 0.00 0.00 0.00 0.00 0.00 0.00 0.00 0.00 0.00 0.00 0.00 0.00
0.21 0.23 0.23 0.23 0.21 0.21 0.23 0.24 0.24 0.23 0.19 0.19 0.22 0.25 0.16 0.16 0.29 0.24 0.18 0.21 0.25 0.18 0.05 0.09 0.14 0.16 0.05 0.00 0.00 0.00 0.00 0.00 0.03 0.03 0.06 0.04 0.02 0.01 0.00 0.00 0.00 0.00 0.01 0.00 0.00 0.00 0.00 0.00 0.00 0.00 0.00 0.00 0.00 0.00
0.12 0.18 0.18 0.16 0.19 0.19 0.19 0.21 0.21 0.22 0.25 0.29 0.37 0.29 0.19 0.21 0.35 0.18 0.16 0.20 0.23 0.20 0.11 0.08 0.08 0.12 0.08 0.03 0.00 0.00 0.00 0.01 0.04 0.08 0.12 0.06 0.06 0.03 0.01 0.00 0.00 0.00 0.01 0.00 0.00 0.00 0.00 0.00 0.00 0.00 0.00 0.00 0.00 0.00
0.02 0.03 0.04 0.05 0.07 0.09 0.10 0.11 0.15 0.22 0.30 0.31 0.48 0.24 0.17 0.26 0.32 0.10 0.12 0.24 0.10 0.20 0.14 0.07 0.05 0.11 0.16 0.10 0.06 0.02 0.00 0.01 0.04 0.05 0.06 0.03 0.02 0.03 0.02 0.01 0.00 0.00 0.00 0.00 0.00 0.01 0.00 0.00 0.00 0.00 0.00 0.00 0.00 0.00
0.01 0.02 0.03 0.04 0.04 0.05 0.06 0.08 0.13 0.19 0.19 0.32 0.33 0.20 0.19 0.23 0.17 0.12 0.25 0.29 0.13 0.13 0.12 0.07 0.03 0.05 0.15 0.21 0.17 0.12 0.04 0.01 0.04 0.03 0.02 0.01 0.00 0.02 0.01 0.00 0.00 0.00 0.00 0.00 0.00 0.00 0.00 0.00 0.00 0.00 0.00 0.00 0.00 0.00
0.01 0.01 0.02 0.03 0.05 0.06 0.05 0.06 0.10 0.14 0.23 0.32 0.13 0.20 0.11 0.11 0.11 0.19 0.17 0.14 0.09 0.13 0.14 0.07 0.05 0.11 0.16 0.25 0.25 0.15 0.13 0.09 0.06 0.04 0.01 0.00 0.00 0.01 0.00 0.00 0.00 0.00 0.00 0.00 0.00 0.00 0.00 0.00 0.00 0.00 0.00 0.00 0.00 0.00
0.02 0.01 0.01 0.02 0.03 0.01 0.01 0.04 0.09 0.19 0.24 0.10 0.11 0.11 0.07 0.07 0.20 0.18 0.07 0.05 0.04 0.12 0.16 0.09 0.07 0.30 0.49 0.45 0.24 0.23 0.30 0.23 0.15 0.13 0.05 0.01 0.01 0.00 0.00 0.00 0.00 0.00 0.00 0.00 0.00 0.00 0.00 0.00 0.00 0.00 0.00 0.00 0.00 0.00
0.03 0.02 0.01 0.01 0.01 0.01 0.02 0.03 0.07 0.08 0.04 0.08 0.13 0.11 0.21 0.17 0.39 0.12 0.20 0.31 0.26 0.28 0.30 0.10 0.11 0.39 0.56 0.68 0.31 0.25 0.47 0.60 0.27 0.12 0.11 0.08 0.04 0.01 0.00 0.00 0.00 0.00 0.00 0.00 0.00 0.00 0.00 0.00 0.00 0.00 0.00 0.00 0.00 0.00
0.06 0.05 0.03 0.03 0.02 0.02 0.03 0.03 0.02 0.01 0.03 0.09 0.22 0.33 0.28 0.18 0.29 0.43 0.71 0.77 0.47 0.37 0.28 0.17 0.15 0.27 0.51 0.33 0.46 0.33 0.24 0.60 0.74 0.32 0.16 0.15 0.08 0.01 0.00 0.00 0.00 0.00 0.00 0.00 0.00 0.00 0.00 0.00 0.00 0.00 0.00 0.00 0.00 0.00
0.06 0.06 0.05 0.06 0.07 0.07 0.08 0.07 0.09 0.12 0.16 0.28 0.33 0.36 0.23 0.33 0.70 0.75 0.70 0.51 0.28 0.14 0.07 0.13 0.14 0.22 0.24 0.14 0.24 0.31 0.35 0.29 0.30 0.41 0.28 0.22 0.11 0.02 0.00 0.00 0.01 0.01 0.00 0.00 0.00 0.00 0.00 0.00 0.00 0.00 0.00 0.00 0.00 0.00
0.06 0.05 0.03 0.03 0.03 0.04 0.07 0.09 0.10 0.14 0.23 0.46 0.59 0.47 0.49 0.55 0.54 0.56 0.34 0.24 0.11 0.03 0.03 0.11 0.07 0.07 0.26 0.25 0.21 0.30 0.25 0.26 0.20 0.10 0.12 0.09 0.04 0.03 0.06 0.06 0.06 0.06 0.06 0.04 0.02 0.01 0.01 0.01 0.01 0.01 0.02 0.03 0.04 0.06
0.09 0.08 0.07 0.05 0.02 0.02 0.05 0.16 0.27 0.43 0.86 0.82 0.49 0.38 0.46 0.45 0.42 0.35 0.10 0.07 0.05 0.02 0.02 0.05 0.08 0.04 0.06 0.24 0.32 0.22 0.24 0.17 0.12 0.14 0.12 0.03 0.01 0.01 0.04 0.08 0.12 0.15 0.16 0.17 0.17 0.17 0.16 0.16 0.15 0.14 0.19 0.27 0.33 0.37
0.12 0.08 0.09 0.12 0.14 0.15 0.22 0.29 0.40 0.91 0.98 0.49 0.38 0.36 0.38 0.33 0.31 0.21 0.06 0.03 0.03 0.02 0.02 0.02 0.05 0.05 0.03 0.08 0.20 0.24 0.16 0.13 0.10 0.08 0.05 0.03 0.05 0.04 0.02 0.02 0.02 0.04 0.07 0.15 0.26 0.29 0.28 0.31 0.40 0.45 0.42 0.37 0.29 0.22
0.14 0.14 0.17 0.25 0.24 0.27 0.34 0.46 0.61 0.69 0.65 0.60 0.57 0.37 0.25 0.26 0.25 0.18 0.09 0.08 0.09 0.05 0.03 0.03 0.08 0.09 0.09 0.12 0.13 0.09 0.09 0.09 0.06 0.03 0.03 0.02 0.02 0.02 0.02 0.02 0.05 0.09 0.15 0.21 0.25 0.26 0.27 0.25 0.23 0.25 0.22 0.17 0.10 0.07
0.22 0.18 0.18 0.24 0.27 0.34 0.46 0.52 0.48 0.46 0.44 0.35 0.28 0.26 0.24 0.25 0.24 0.18 0.15 0.16 0.16 0.14 0.12 0.14 0.20 0.27 0.25 0.12 0.07 0.07 0.04 0.05 0.06 0.06 0.06 0.04 0.06 0.09 0.10 0.12 0.19 0.26 0.29 0.25 0.22 0.17 0.15 0.13 0.07 0.05 0.05 0.02 0.02 0.02
0.27 0.19 0.14 0.16 0.21 0.23 0.28 0.30 0.24 0.16 0.14 0.15 0.23 0.31 0.30 0.27 0.23 0.23 0.24 0.23 0.19 0.18 0.19 0.16 0.13 0.20 0.22 0.14 0.10 0.10 0.12 0.14 0.14 0.11 0.10 0.10 0.12 0.16 0.21 0.27 0.31 0.31 0.25 0.15 0.10 0.09 0.07 0.04 0.01 0.01 0.01 0.01 0.01 0.01
0.46 0.34 0.28 0.29 0.22 0.23 0.31 0.34 0.14 0.02 0.07 0.18 0.20 0.28 0.25 0.30 0.27 0.21 0.24 0.24 0.16 0.14 0.13 0.15 0.12 0.09 0.10 0.10 0.13 0.21 0.27 0.31 0.29 0.28 0.27 0.28 0.28 0.32 0.33 0.32 0.33 0.25 0.13 0.12 0.10 0.12 0.10 0.08 0.06 0.06 0.04 0.02 0.00 0.00
0.19 0.21 0.24 0.22 0.16 0.16 0.16 0.08 0.04 0.07 0.18 0.18 0.19 0.16 0.12 0.16 0.22 0.25 0.22 0.20 0.14 0.06 0.06 0.11 0.10 0.11 0.15 0.19 0.25 0.27 0.33 0.33 0.36 0.42 0.43 0.44 0.40 0.34 0.37 0.33 0.26 0.19 0.16 0.17 0.14 0.11 0.10 0.07 0.07 0.05 0.04 0.02 0.01 0.00
0.07 0.09 0.10 0.08 0.04 0.00 0.00 0.01 0.00 0.03 0.13 0.18 0.18 0.08 0.05 0.13 0.10 0.04 0.03 0.02 0.02 0.01 0.05 0.11 0.22 0.27 0.31 0.34 0.40 0.42 0.43 0.41 0.34 0.24 0.29 0.36 0.41 0.30 0.30 0.22 0.20 0.18 0.14 0.14 0.13 0.12 0.08 0.07 0.06 0.04 0.03 0.02 0.01 0.01
0.03 0.05 0.03 0.00 0.00 0.00 0.00 0.00 0.02 0.04 0.06 0.10 0.11 0.03 0.08 0.03 0.00 0.00 0.00 0.00 0.01 0.09 0.22 0.31 0.33 0.35 0.41 0.42 0.38 0.36 0.37 0.32 0.29 0.19 0.21 0.23 0.32 0.21 0.21 0.22 0.17 0.14 0.11 0.12 0.10 0.11 0.08 0.08 0.08 0.05 0.03 0.03 0.02 0.02
0.00 0.00 0.00 0.00 0.00 0.00 0.01 0.00 0.02 0.04 0.02 0.06 0.05 0.03 0.04 0.02 0.00 0.00 0.00 0.01 0.10 0.23 0.33 0.33 0.33 0.35 0.32 0.33 0.37 0.33 0.39 0.28 0.23 0.19 0.20 0.16 0.16 0.15 0.16 0.19 0.12 0.11 0.10 0.11 0.09 0.09 0.08 0.06 0.05 0.03 0.02 0.02 0.02 0.01
0.00 0.00 0.00 0.00 0.00 0.00 0.00 0.00 0.00 0.00 0.00 0.01 0.00 0.00 0.01 0.01 0.01 0.00 0.01 0.04 0.13 0.24 0.29 0.24 0.28 0.28 0.28 0.35 0.24 0.22 0.28 0.20 0.16 0.16 0.16 0.13 0.11 0.12 0.09 0.09 0.08 0.06 0.06 0.08 0.07 0.06 0.05 0.04 0.02 0.01 0.00 0.00 0.00 0.00
0.00 0.00 0.00 0.00 0.00 0.00 0.00 0.00 0.00 0.00 0.00 0.00 0.00 0.02 0.05 0.02 0.00 0.00 0.01 0.04 0.13 0.12 0.09 0.14 0.15 0.15 0.15 0.11 0.12 0.15 0.20 0.13 0.10 0.10 0.11 0.04 0.03 0.05 0.03 0.04 0.04 0.04 0.04 0.04 0.02 0.01 0.01 0.00 0.00 0.00 0.00 0.00 0.00 0.00
0.00 0.00 0.00 0.00 0.00 0.00 0.00 0.00 0.00 0.00 0.00 0.00 0.00 0.03 0.02 0.00 0.00 0.01 0.02 0.05 0.06 0.06 0.08 0.08 0.06 0.07 0.08 0.10 0.10 0.10 0.07 0.03 0.02 0.02 0.04 0.02 0.01 0.01 0.01 0.01 0.01 0.01 0.00 0.00 0.00 0.00 0.00 0.00 0.00 0.00 0.00 0.00 0.00 0.00
0.00 0.01 0.01 0.01 0.00 0.00 0.01 0.00 0.01 0.01 0.01 0.01 0.02 0.03 0.00 0.00 0.00 0.02 0.03 0.05 0.05 0.06 0.06 0.05 0.04 0.02 0.01 0.01 0.01 0.01 0.02 0.00 0.00 0.00 0.02 0.01 0.01 0.01 0.01 0.00 0.00 0.00 0.00 0.00 0.00 0.00 0.00 0.00 0.00 0.00 0.00 0.00 0.00 0.00
0.00 0.00 0.00 0.01 0.01 0.00 0.00 0.00 0.00 0.00 0.01 0.02 0.01 0.01 0.00 0.00 0.01 0.05 0.05 0.04 0.03 0.04 0.03 0.02 0.01 0.00 0.01 0.01 0.01 0.00 0.00 0.00 0.00 0.00 0.00 0.00 0.00 0.00 0.00 0.00 0.01 0.01 0.01 0.00 0.00 0.00 0.00 0.00 0.00 0.00 0.00 0.00 0.00 0.01
0.01 0.00 0.00 0.00 0.00 0.00 0.00 0.00 0.00 0.01 0.02 0.02 0.01 0.00 0.01 0.01 0.03 0.06 0.07 0.07 0.03 0.01 0.00 0.00 0.00 0.00 0.00 0.01 0.01 0.01 0.00 0.00 0.00 0.00 0.00 0.00 0.00 0.00 0.00 0.00 0.01 0.00 0.00 0.00 0.00 0.01 0.01 0.01 0.01 0.01 0.01 0.00 0.00 0.00
0.00 0.00 0.00 0.00 0.00 0.00 0.01 0.01 0.01 0.01 0.02 0.01 0.00 0.01 0.02 0.03 0.06 0.06 0.07 0.06 0.03 0.01 0.01 0.00 0.01 0.00 0.00 0.00 0.00 0.00 0.00 0.00 0.00 0.00 0.00 0.00 0.00 0.00 0.00 0.00 0.00 0.00 0.00 0.00 0.00 0.00 0.01 0.01 0.01 0.00 0.00 0.00 0.01 0.01
0.00 0.00 0.00 0.00 0.01 0.01 0.02 0.01 0.00 0.00 0.00 0.00 0.00 0.01 0.01 0.05 0.09 0.06 0.03 0.01 0.01 0.00 0.01 0.00 0.00 0.00 0.00 0.00 0.00 0.00 0.00 0.00 0.00 0.00 0.00 0.00 0.00 0.00 0.00 0.00 0.00 0.00 0.00 0.00 0.00 0.00 0.00 0.00 0.00 0.00 0.00 0.00 0.00 0.00
0.00 0.00 0.00 0.00 0.02 0.02 0.01 0.00 0.00 0.00 0.00 0.00 0.00 0.00 0.01 0.03 0.03 0.02 0.01 0.01 0.01 0.00 0.00 0.00 0.00 0.00 0.00 0.00 0.00 0.00 0.00 0.00 0.00 0.00 0.00 0.00 0.00 0.00 0.00 0.00 0.00 0.00 0.00 0.00 0.00 0.00 0.00 0.00 0.00 0.00 0.00 0.00 0.00 0.01
0.00 0.00 0.00 0.00 0.02 0.03 0.03 0.03 0.01 0.00 0.00 0.00 0.01 0.00 0.01 0.00 0.01 0.01 0.01 0.00 0.00 0.00 0.00 0.00 0.00 0.01 0.00 0.00 0.00 0.00 0.00 0.00 0.00 0.00 0.00 0.00 0.00 0.00 0.00 0.00 0.00 0.00 0.00 0.00 0.00 0.00 0.00 0.00 0.00 0.00 0.00 0.00 0.01 0.00
0.00 0.00 0.00 0.00 0.02 0.03 0.03 0.05 0.02 0.01 0.01 0.01 0.01 0.01 0.01 0.00 0.00 0.01 0.01 0.00 0.00 0.00 0.00 0.00 0.01 0.00 0.00 0.00 0.00 0.00 0.00 0.00 0.00 0.00 0.00 0.00 0.00 0.00 0.00 0.00 0.00 0.00 0.00 0.00 0.00 0.00 0.00 0.00 0.00 0.00 0.00 0.00 0.00 0.00

GFSWCAN_prec_precacc12_066.txt.gz
Total_Precipitation_Accumulation
0.03 0.02 0.04 0.06 0.20 0.16 0.17 0.27 0.29 0.27 0.23 0.22 0.28 0.16 0.19 0.28 0.47 0.38 0.20 0.12 0.14 0.11 0.09 0.18 0.13 0.04 0.01 0.04 0.06 0.03 0.13 0.14 0.07 0.03 0.02 0.00 0.00 0.00 0.00 0.01 0.06 0.02 0.03 0.04 0.07 0.04 0.00 0.00 0.00 0.00 0.00 0.00 0.00 0.00
0.15 0.11 0.08 0.10 0.16 0.19 0.22 0.27 0.26 0.23 0.20 0.20 0.24 0.19 0.21 0.30 0.52 0.29 0.21 0.22 0.15 0.18 0.20 0.15 0.21 0.09 0.01 0.00 0.01 0.02 0.07 0.05 0.01 0.01 0.00 0.00 0.01 0.01 0.00 0.00 0.01 0.05 0.03 0.04 0.01 0.00 0.00 0.00 0.00 0.00 0.00 0.00 0.00 0.00
0.24 0.27 0.23 0.21 0.20 0.23 0.26 0.25 0.24 0.21 0.19 0.20 0.23 0.21 0.27 0.38 0.50 0.24 0.14 0.19 0.27 0.27 0.18 0.12 0.18 0.17 0.05 0.00 0.00 0.07 0.05 0.02 0.00 0.00 0.00 0.01 0.01 0.01 0.00 0.00 0.00 0.01 0.03 0.08 0.07 0.00 0.00 0.00 0.00 0.00 0.00 0.00 0.00 0.00
0.17 0.27 0.31 0.25 0.22 0.24 0.24 0.23 0.20 0.19 0.23 0.28 0.25 0.31 0.38 0.46 0.45 0.29 0.13 0.08 0.21 0.22 0.15 0.10 0.05 0.11 0.09 0.03 0.02 0.03 0.03 0.02 0.04 0.01 0.03 0.04 0.01 0.00 0.00 0.00 0.00 0.00 0.01 0.01 0.03 0.01 0.01 0.03 0.01 0.00 0.00 0.00 0.00 0.00
0.03 0.08 0.15 0.16 0.19 0.22 0.22 0.19 0.21 0.27 0.33 0.32 0.34 0.46 0.46 0.45 0.41 0.29 0.11 0.09 0.09 0.23 0.12 0.08 0.05 0.08 0.16 0.09 0.08 0.07 0.05 0.07 0.14 0.11 0.04 0.02 0.00 0.00 0.00 0.00 0.00 0.00 0.00 0.00 0.00 0.01 0.00 0.00 0.00 0.00 0.00 0.00 0.00 0.00
0.02 0.03 0.06 0.09 0.11 0.13 0.16 0.19 0.25 0.28 0.27 0.30 0.38 0.42 0.39 0.30 0.29 0.26 0.34 0.23 0.14 0.13 0.12 0.07 0.04 0.05 0.12 0.13 0.14 0.15 0.13 0.09 0.11 0.09 0.06 0.01 0.00 0.00 0.00 0.00 0.00 0.00 0.00 0.00 0.00 0.00 0.00 0.00 0.01 0.01 0.00 0.00 0.00 0.00
0.01 0.02 0.04 0.06 0.09 0.10 0.12 0.17 0.19 0.20 0.27 0.36 0.34 0.37 0.24 0.16 0.13 0.13 0.18 0.13 0.08 0.11 0.11 0.03 0.03 0.04 0.11 0.13 0.16 0.16 0.15 0.18 0.17 0.23 0.08 0.02 0.00 0.00 0.00 0.00 0.00 0.00 0.00 0.00 0.00 0.00 0.00 0.00 0.00 0.00 0.00 0.00 0.00 0.00
0.01 0.02 0.03 0.03 0.04 0.05 0.06 0.07 0.12 0.21 0.24 0.23 0.24 0.19 0.12 0.07 0.20 0.17 0.01 0.01 0.03 0.04 0.08 0.05 0.06 0.11 0.25 0.21 0.21 0.30 0.25 0.22 0.19 0.17 0.07 0.02 0.03 0.07 0.02 0.00 0.00 0.00 0.00 0.00 0.00 0.00 0.00 0.00 0.00 0.00 0.00 0.00 0.00 0.00
0.00 0.01 0.01 0.02 0.02 0.02 0.03 0.05 0.11 0.11 0.08 0.10 0.10 0.11 0.12 0.14 0.34 0.11 0.02 0.09 0.10 0.11 0.10 0.04 0.08 0.19 0.36 0.26 0.22 0.39 0.56 0.38 0.14 0.09 0.05 0.06 0.05 0.06 0.01 0.00 0.00 0.00 0.00 0.00 0.00 0.00 0.00 0.00 0.00 0.00 0.00 0.00 0.00 0.00
0.00 0.01 0.02 0.03 0.04 0.04 0.04 0.04 0.02 0.01 0.03 0.07 0.16 0.20 0.13 0.12 0.16 0.14 0.18 0.39 0.14 0.15 0.09 0.02 0.08 0.28 0.49 0.30 0.21 0.42 0.41 0.47 0.41 0.11 0.08 0.07 0.02 0.01 0.00 0.00 0.00 0.00 0.00 0.00 0.00 0.00 0.00 0.00 0.00 0.00 0.00 0.00 0.00 0.00
0.01 0.03 0.04 0.06 0.07 0.08 0.09 0.06 0.06 0.05 0.09 0.16 0.14 0.07 0.04 0.12 0.28 0.32 0.21 0.20 0.06 0.05 0.01 0.00 0.06 0.26 0.60 0.44 0.18 0.41 0.51 0.31 0.15 0.18 0.15 0.07 0.02 0.01 0.00 0.00 0.00 0.00 0.00 0.00 0.00 0.00 0.00 0.00 0.00 0.00 0.00 0.00 0.00 0.00
0.00 0.00 0.01 0.01 0.03 0.05 0.09 0.08 0.08 0.11 0.08 0.11 0.10 0.07 0.16 0.22 0.30 0.35 0.09 0.05 0.03 0.02 0.04 0.02 0.04 0.19 0.53 0.71 0.23 0.24 0.26 0.19 0.15 0.06 0.09 0.11 0.07 0.02 0.01 0.01 0.02 0.03 0.04 0.02 0.01 0.00 0.00 0.00 0.00 0.00 0.01 0.02 0.04 0.06
0.00 0.00 0.00 0.01 0.02 0.02 0.02 0.02 0.02 0.03 0.09 0.19 0.17 0.08 0.23 0.27 0.34 0.32 0.06 0.03 0.05 0.06 0.03 0.03 0.04 0.15 0.35 0.44 0.43 0.23 0.38 0.13 0.11 0.18 0.21 0.13 0.05 0.02 0.02 0.06 0.09 0.12 0.15 0.17 0.17 0.17 0.17 0.16 0.15 0.16 0.22 0.33 0.40 0.50
0.00 0.00 0.01 0.01 0.00 0.00 0.01 0.02 0.03 0.13 0.30 0.18 0.14 0.13 0.34 0.33 0.36 0.26 0.09 0.06 0.03 0.01 0.02 0.04 0.05 0.08 0.21 0.34 0.38 0.35 0.38 0.30 0.17 0.21 0.16 0.10 0.10 0.09 0.07 0.06 0.08 0.13 0.18 0.27 0.39 0.41 0.41 0.43 0.56 0.66 0.65 0.63 0.55 0.52
0.01 0.01 0.01 0.02 0.02 0.02 0.03 0.03 0.05 0.18 0.32 0.37 0.44 0.34 0.24 0.30 0.27 0.18 0.13 0.06 0.06 0.04 0.03 0.05 0.09 0.12 0.19 0.33 0.27 0.22 0.22 0.19 0.14 0.12 0.10 0.09 0.10 0.10 0.10 0.10 0.12 0.17 0.25 0.33 0.38 0.38 0.39 0.36 0.30 0.37 0.38 0.34 0.25 0.25
0.05 0.05 0.06 0.06 0.10 0.11 0.15 0.16 0.26 0.37 0.43 0.35 0.28 0.29 0.24 0.30 0.26 0.22 0.18 0.15 0.15 0.18 0.16 0.17 0.27 0.28 0.31 0.16 0.13 0.18 0.12 0.12 0.16 0.14 0.14 0.13 0.15 0.18 0.20 0.22 0.27 0.34 0.36 0.32 0.28 0.24 0.22 0.18 0.11 0.13 0.15 0.13 0.12 0.10
0.16 0.11 0.10 0.09 0.09 0.11 0.17 0.21 0.25 0.22 0.20 0.21 0.31 0.36 0.36 0.34 0.29 0.26 0.25 0.25 0.24 0.28 0.25 0.20 0.22 0.26 0.22 0.12 0.09 0.09 0.16 0.21 0.25 0.22 0.20 0.22 0.24 0.27 0.30 0.33 0.35 0.34 0.28 0.20 0.17 0.17 0.16 0.10 0.05 0.03 0.06 0.08 0.05 0.05
0.45 0.34 0.26 0.22 0.15 0.15 0.21 0.23 0.13 0.07 0.14 0.23 0.26 0.31 0.31 0.35 0.33 0.28 0.31 0.32 0.24 0.22 0.20 0.18 0.12 0.09 0.11 0.11 0.13 0.18 0.28 0.31 0.31 0.33 0.33 0.33 0.32 0.34 0.36 0.35 0.35 0.30 0.19 0.19 0.16 0.18 0.17 0.14 0.10 0.12 0.09 0.06 0.02 0.01
0.28 0.27 0.28 0.24 0.17 0.16 0.16 0.12 0.04 0.08 0.20 0.18 0.22 0.24 0.23 0.26 0.30 0.31 0.28 0.28 0.22 0.14 0.13 0.15 0.15 0.16 0.17 0.18 0.21 0.22 0.33 0.28 0.27 0.30 0.29 0.32 0.35 0.36 0.39 0.34 0.27 0.22 0.18 0.20 0.16 0.15 0.15 0.12 0.11 0.09 0.07 0.03 0.02 0.02
0.23 0.22 0.17 0.12 0.04 0.00 0.01 0.05 0.01 0.05 0.14 0.14 0.18 0.12 0.10 0.14 0.14 0.09 0.07 0.07 0.08 0.07 0.10 0.13 0.20 0.25 0.28 0.28 0.30 0.31 0.40 0.31 0.27 0.21 0.25 0.31 0.40 0.31 0.33 0.26 0.24 0.22 0.16 0.15 0.13 0.11 0.09 0.07 0.07 0.05 0.04 0.03 0.02 0.02
0.08 0.09 0.06 0.01 0.00 0.00 0.00 0.01 0.02 0.03 0.03 0.06 0.04 0.01 0.01 0.00 0.00 0.00 0.00 0.00 0.01 0.07 0.17 0.24 0.23 0.22 0.24 0.26 0.27 0.28 0.30 0.28 0.29 0.22 0.25 0.26 0.34 0.25 0.24 0.24 0.20 0.16 0.12 0.12 0.09 0.09 0.06 0.06 0.07 0.05 0.04 0.04 0.03 0.03
0.01 0.00 0.00 0.00 0.00 0.00 0.01 0.01 0.02 0.04 0.02 0.02 0.01 0.01 0.00 0.00 0.00 0.00 0.00 0.00 0.07 0.15 0.19 0.19 0.19 0.20 0.19 0.23 0.28 0.27 0.32 0.27 0.24 0.20 0.23 0.20 0.20 0.18 0.17 0.19 0.12 0.10 0.07 0.07 0.04 0.03 0.03 0.02 0.02 0.02 0.02 0.02 0.02 0.01
0.00 0.00 0.00 0.00 0.00 0.00 0.00 0.00 0.00 0.01 0.01 0.01 0.00 0.00 0.00 0.00 0.00 0.00 0.00 0.02 0.08 0.15 0.16 0.14 0.17 0.19 0.19 0.26 0.20 0.20 0.25 0.19 0.16 0.17 0.18 0.15 0.12 0.11 0.07 0.05 0.03 0.02 0.01 0.01 0.01 0.01 0.01 0.00 0.00 0.00 0.00 0.00 0.00 0.00
0.00 0.00 0.00 0.00 0.00 0.00 0.00 0.00 0.00 0.00 0.00 0.00 0.00 0.01 0.01 0.00 0.00 0.00 0.01 0.04 0.09 0.08 0.07 0.12 0.12 0.12 0.12 0.10 0.11 0.14 0.19 0.14 0.12 0.11 0.10 0.04 0.02 0.01 0.00 0.00 0.00 0.00 0.00 0.00 0.00 0.00 0.00 0.00 0.00 0.00 0.00 0.00 0.00 0.00
0.00 0.00 0.00 0.00 0.00 0.00 0.00 0.00 0.00 0.00 0.01 0.01 0.01 0.01 0.00 0.00 0.00 0.01 0.02 0.05 0.05 0.05 0.07 0.06 0.06 0.07 0.08 0.10 0.10 0.08 0.05 0.03 0.02 0.02 0.02 0.00 0.00 0.00 0.00 0.00 0.00 0.00 0.00 0.00 0.00 0.00 0.00 0.00 0.00 0.00 0.00 0.00 0.00 0.00
0.00 0.01 0.00 0.01 0.00 0.00 0.01 0.00 0.01 0.01 0.01 0.01 0.01 0.01 0.00 0.00 0.00 0.02 0.03 0.05 0.04 0.05 0.06 0.06 0.05 0.03 0.02 0.01 0.01 0.01 0.00 0.00 0.00 0.00 0.00 0.00 0.00 0.00 0.00 0.00 0.00 0.00 0.01 0.00 0.00 0.00 0.00 0.00 0.00 0.00 0.00 0.00 0.00 0.00
0.00 0.00 0.00 0.00 0.00 0.00 0.00 0.00 0.00 0.00 0.01 0.01 0.01 0.00 0.00 0.00 0.01 0.03 0.03 0.03 0.02 0.03 0.02 0.02 0.00 0.00 0.00 0.00 0.00 0.00 0.00 0.00 0.00 0.00 0.00 0.00 0.00 0.00 0.00 0.00 0.00 0.01 0.01 0.00 0.00 0.00 0.00 0.00 0.00 0.00 0.00 0.00 0.00 0.01
0.00 0.00 0.00 0.00 0.00 0.00 0.00 0.00 0.00 0.01 0.01 0.01 0.00 0.00 0.00 0.01 0.03 0.05 0.04 0.03 0.01 0.01 0.00 0.00 0.00 0.00 0.00 0.00 0.00 0.00 0.00 0.00 0.00 0.00 0.00 0.00 0.00 0.00 0.00 0.00 0.00 0.00 0.00 0.00 0.00 0.00 0.00 0.00 0.00 0.00 0.00 0.00 0.00 0.00
0.00 0.00 0.00 0.00 0.00 0.00 0.00 0.01 0.01 0.01 0.01 0.01 0.00 0.01 0.01 0.02 0.06 0.05 0.04 0.03 0.02 0.01 0.00 0.00 0.00 0.00 0.00 0.00 0.00 0.00 0.00 0.00 0.00 0.00 0.00 0.00 0.00 0.00 0.00 0.00 0.00 0.00 0.00 0.00 0.00 0.00 0.00 0.00 0.00 0.00 0.00 0.00 0.00 0.01
0.00 0.00 0.00 0.00 0.00 0.01 0.01 0.01 0.01 0.01 0.00 0.00 0.00 0.01 0.01 0.03 0.05 0.04 0.03 0.03 0.02 0.02 0.01 0.00 0.01 0.01 0.00 0.00 0.00 0.00 0.00 0.00 0.00 0.00 0.00 0.00 0.00 0.00 0.00 0.00 0.00 0.00 0.00 0.00 0.00 0.00 0.00 0.00 0.00 0.00 0.00 0.00 0.00 0.00
0.00 0.00 0.00 0.00 0.01 0.01 0.01 0.01 0.00 0.00 0.00 0.00 0.00 0.00 0.01 0.02 0.02 0.02 0.01 0.01 0.01 0.00 0.00 0.00 0.00 0.00 0.00 0.00 0.00 0.00 0.00 0.00 0.00 0.00 0.00 0.00 0.00 0.00 0.00 0.00 0.00 0.00 0.00 0.00 0.00 0.00 0.00 0.00 0.00 0.00 0.00 0.00 0.00 0.00
0.00 0.00 0.00 0.00 0.01 0.01 0.02 0.03 0.01 0.00 0.01 0.01 0.01 0.01 0.01 0.01 0.01 0.01 0.01 0.01 0.01 0.01 0.01 0.01 0.01 0.01 0.00 0.00 0.00 0.00 0.00 0.00 0.00 0.00 0.00 0.00 0.00 0.00 0.00 0.00 0.00 0.00 0.00 0.00 0.00 0.00 0.00 0.00 0.00 0.00 0.00 0.00 0.00 0.00
0.00 0.00 0.00 0.00 0.01 0.01 0.02 0.02 0.01 0.01 0.01 0.01 0.01 0.01 0.01 0.01 0.01 0.01 0.01 0.01 0.02 0.01 0.01 0.01 0.01 0.00 0.00 0.00 0.00 0.00 0.00 0.00 0.00 0.00 0.00 0.00 0.00 0.00 0.00 0.00 0.00 0.00 0.00 0.00 0.00 0.00 0.00 0.00 0.00 0.00 0.00 0.00 0.00 0.00

GFSWCAN_prec_precacc12_072.txt.gz
Total_Precipitation_Accumulation
0.04 0.07 0.09 0.06 0.13 0.08 0.11 0.13 0.11 0.07 0.09 0.13 0.18 0.07 0.09 0.22 0.44 0.59 0.71 0.29 0.71 0.46 0.07 0.05 0.03 0.01 0.00 0.02 0.05 0.02 0.13 0.16 0.21 0.11 0.05 0.02 0.01 0.01 0.00 0.01 0.06 0.03 0.04 0.05 0.08 0.05 0.01 0.00 0.00 0.00 0.00 0.00 0.00 0.00
0.08 0.14 0.07 0.04 0.09 0.15 0.15 0.21 0.18 0.13 0.09 0.09 0.18 0.11 0.13 0.28 0.54 0.43 0.44 0.37 0.47 0.48 0.19 0.08 0.10 0.02 0.01 0.00 0.01 0.02 0.07 0.06 0.08 0.09 0.06 0.02 0.02 0.01 0.00 0.00 0.00 0.05 0.03 0.05 0.02 0.01 0.00 0.00 0.00 0.00 0.00 0.00 0.00 0.00
0.15 0.16 0.08 0.03 0.04 0.09 0.17 0.20 0.13 0.17 0.15 0.11 0.21 0.18 0.21 0.38 0.50 0.31 0.28 0.37 0.64 0.72 0.28 0.12 0.12 0.04 0.01 0.00 0.01 0.07 0.05 0.02 0.02 0.03 0.05 0.09 0.04 0.01 0.00 0.00 0.00 0.00 0.01 0.08 0.09 0.01 0.03 0.05 0.03 0.00 0.00 0.00 0.00 0.00
0.16 0.19 0.21 0.13 0.08 0.09 0.10 0.07 0.07 0.17 0.18 0.19 0.29 0.32 0.36 0.48 0.41 0.32 0.20 0.25 0.44 0.53 0.33 0.12 0.05 0.07 0.04 0.01 0.03 0.03 0.03 0.05 0.04 0.07 0.13 0.14 0.06 0.02 0.00 0.00 0.00 0.00 0.01 0.01 0.04 0.04 0.06 0.07 0.12 0.05 0.01 0.00 0.00 0.00
0.12 0.13 0.16 0.16 0.16 0.17 0.14 0.12 0.17 0.24 0.29 0.31 0.43 0.46 0.50 0.45 0.39 0.36 0.19 0.21 0.28 0.32 0.14 0.11 0.04 0.12 0.22 0.06 0.10 0.09 0.06 0.14 0.22 0.24 0.18 0.12 0.04 0.03 0.02 0.00 0.00 0.00 0.00 0.01 0.00 0.00 0.01 0.00 0.00 0.01 0.01 0.00 0.00 0.00
0.11 0.11 0.14 0.10 0.09 0.12 0.16 0.21 0.26 0.27 0.27 0.36 0.43 0.41 0.40 0.36 0.45 0.51 0.80 0.47 0.28 0.16 0.09 0.10 0.05 0.04 0.20 0.15 0.12 0.16 0.14 0.14 0.27 0.26 0.16 0.07 0.04 0.10 0.05 0.00 0.00 0.00 0.00 0.00 0.00 0.00 0.00 0.00 0.01 0.01 0.00 0.00 0.00 0.00
0.08 0.10 0.12 0.13 0.12 0.11 0.14 0.18 0.19 0.21 0.29 0.38 0.37 0.35 0.32 0.28 0.29 0.23 0.29 0.22 0.12 0.07 0.14 0.07 0.03 0.02 0.02 0.09 0.10 0.14 0.13 0.16 0.26 0.41 0.21 0.11 0.05 0.10 0.14 0.03 0.00 0.00 0.00 0.00 0.00 0.00 0.00 0.00 0.00 0.00 0.00 0.00 0.00 0.00
0.06 0.09 0.12 0.11 0.09 0.10 0.11 0.14 0.19 0.26 0.31 0.34 0.40 0.40 0.35 0.26 0.21 0.05 0.01 0.01 0.02 0.09 0.05 0.02 0.06 0.08 0.02 0.02 0.10 0.19 0.18 0.18 0.28 0.39 0.29 0.15 0.14 0.19 0.18 0.05 0.00 0.00 0.00 0.00 0.00 0.00 0.00 0.00 0.00 0.00 0.00 0.00 0.00 0.00
0.08 0.12 0.18 0.19 0.15 0.12 0.13 0.13 0.15 0.16 0.20 0.25 0.29 0.26 0.21 0.19 0.12 0.09 0.05 0.01 0.03 0.04 0.02 0.01 0.02 0.12 0.11 0.06 0.16 0.26 0.27 0.17 0.16 0.21 0.19 0.25 0.23 0.39 0.28 0.13 0.02 0.00 0.00 0.00 0.00 0.00 0.00 0.00 0.00 0.00 0.00 0.00 0.00 0.00
0.09 0.12 0.16 0.18 0.18 0.20 0.26 0.29 0.25 0.20 0.17 0.12 0.07 0.07 0.13 0.07 0.07 0.04 0.02 0.02 0.02 0.01 0.04 0.01 0.01 0.15 0.25 0.21 0.20 0.39 0.30 0.13 0.06 0.04 0.12 0.22 0.44 0.34 0.18 0.08 0.01 0.00 0.00 0.00 0.00 0.00 0.00 0.00 0.00 0.00 0.00 0.00 0.00 0.00
0.06 0.06 0.07 0.11 0.14 0.13 0.11 0.07 0.05 0.03 0.02 0.03 0.03 0.06 0.06 0.00 0.04 0.08 0.01 0.02 0.02 0.01 0.00 0.00 0.02 0.20 0.57 0.43 0.26 0.47 0.58 0.28 0.07 0.06 0.12 0.11 0.12 0.20 0.16 0.12 0.07 0.01 0.00 0.00 0.00 0.00 0.00 0.00 0.00 0.00 0.00 0.00 0.00 0.00
0.01 0.01 0.01 0.01 0.02 0.04 0.03 0.02 0.01 0.04 0.02 0.03 0.04 0.02 0.04 0.08 0.10 0.05 0.02 0.02 0.02 0.03 0.05 0.03 0.04 0.19 0.53 0.71 0.27 0.46 0.52 0.54 0.33 0.09 0.08 0.12 0.11 0.03 0.01 0.02 0.05 0.06 0.00 0.00 0.00 0.00 0.00 0.00 0.00 0.00 0.00 0.00 0.00 0.00
0.00 0.00 0.00 0.01 0.01 0.00 0.00 0.00 0.00 0.01 0.03 0.06 0.05 0.03 0.10 0.05 0.04 0.06 0.04 0.04 0.06 0.08 0.07 0.04 0.03 0.15 0.34 0.44 0.39 0.14 0.29 0.12 0.43 0.53 0.24 0.17 0.08 0.04 0.03 0.02 0.02 0.01 0.01 0.01 0.01 0.02 0.03 0.04 0.05 0.05 0.07 0.11 0.12 0.19
0.00 0.00 0.00 0.00 0.00 0.00 0.00 0.00 0.00 0.00 0.03 0.03 0.02 0.03 0.14 0.08 0.15 0.17 0.11 0.10 0.06 0.03 0.04 0.06 0.02 0.04 0.19 0.29 0.25 0.19 0.30 0.32 0.37 0.64 0.28 0.14 0.10 0.11 0.10 0.10 0.10 0.14 0.16 0.17 0.22 0.23 0.25 0.24 0.27 0.33 0.37 0.41 0.36 0.43
0.00 0.00 0.00 0.00 0.00 0.00 0.00 0.00 0.00 0.00 0.00 0.00 0.01 0.06 0.06 0.17 0.13 0.08 0.10 0.05 0.02 0.02 0.04 0.05 0.05 0.05 0.12 0.25 0.24 0.28 0.31 0.28 0.18 0.18 0.24 0.21 0.17 0.14 0.17 0.17 0.17 0.18 0.21 0.25 0.28 0.26 0.30 0.27 0.20 0.29 0.34 0.33 0.26 0.29
0.00 0.00 0.00 0.00 0.00 0.00 0.00 0.00 0.01 0.01 0.02 0.02 0.05 0.08 0.06 0.09 0.07 0.08 0.07 0.04 0.03 0.07 0.07 0.19 0.25 0.12 0.20 0.13 0.16 0.25 0.14 0.13 0.19 0.17 0.19 0.20 0.21 0.21 0.21 0.22 0.25 0.26 0.26 0.26 0.27 0.26 0.25 0.23 0.18 0.24 0.26 0.24 0.22 0.16
0.01 0.01 0.01 0.00 0.00 0.00 0.01 0.01 0.04 0.06 0.07 0.09 0.16 0.14 0.13 0.14 0.13 0.12 0.11 0.09 0.12 0.21 0.13 0.10 0.13 0.16 0.12 0.05 0.07 0.11 0.20 0.27 0.29 0.30 0.27 0.23 0.23 0.27 0.25 0.25 0.29 0.29 0.27 0.25 0.24 0.21 0.22 0.20 0.13 0.08 0.13 0.17 0.10 0.08
0.05 0.04 0.01 0.01 0.02 0.02 0.02 0.03 0.03 0.05 0.10 0.16 0.20 0.22 0.18 0.21 0.19 0.16 0.17 0.17 0.15 0.17 0.12 0.09 0.05 0.02 0.05 0.07 0.09 0.14 0.22 0.17 0.17 0.24 0.35 0.36 0.30 0.29 0.31 0.32 0.32 0.28 0.27 0.29 0.25 0.23 0.21 0.15 0.09 0.13 0.11 0.09 0.04 0.03
0.10 0.06 0.04 0.03 0.02 0.02 0.02 0.04 0.01 0.05 0.16 0.16 0.18 0.19 0.20 0.23 0.24 0.23 0.21 0.19 0.16 0.12 0.11 0.12 0.12 0.13 0.15 0.14 0.18 0.20 0.28 0.19 0.19 0.22 0.24 0.31 0.35 0.36 0.36 0.31 0.28 0.27 0.23 0.23 0.17 0.16 0.15 0.12 0.11 0.09 0.07 0.04 0.05 0.04
0.16 0.13 0.08 0.04 0.00 0.00 0.01 0.04 0.00 0.03 0.13 0.14 0.19 0.13 0.10 0.14 0.14 0.08 0.07 0.07 0.07 0.07 0.09 0.11 0.17 0.20 0.23 0.24 0.25 0.26 0.33 0.21 0.16 0.15 0.20 0.26 0.32 0.27 0.29 0.26 0.26 0.24 0.18 0.16 0.13 0.11 0.07 0.05 0.05 0.04 0.02 0.01 0.01 0.02
0.05 0.04 0.03 0.01 0.00 0.00 0.00 0.02 0.02 0.01 0.03 0.10 0.07 0.03 0.02 0.00 0.00 0.00 0.00 0.00 0.01 0.05 0.13 0.17 0.15 0.16 0.15 0.15 0.16 0.16 0.17 0.14 0.16 0.15 0.18 0.21 0.28 0.23 0.23 0.23 0.20 0.16 0.13 0.13 0.10 0.09 0.06 0.05 0.03 0.01 0.01 0.01 0.01 0.01
0.00 0.00 0.00 0.00 0.00 0.00 0.01 0.01 0.03 0.04 0.02 0.01 0.01 0.01 0.01 0.00 0.00 0.00 0.00 0.01 0.07 0.09 0.10 0.08 0.09 0.07 0.06 0.10 0.13 0.13 0.16 0.13 0.14 0.13 0.15 0.15 0.17 0.17 0.17 0.18 0.14 0.12 0.09 0.07 0.04 0.03 0.02 0.01 0.01 0.01 0.00 0.00 0.00 0.00
0.00 0.00 0.00 0.00 0.00 0.00 0.00 0.00 0.00 0.01 0.02 0.01 0.00 0.00 0.01 0.01 0.00 0.00 0.00 0.03 0.11 0.14 0.07 0.05 0.06 0.07 0.08 0.12 0.09 0.11 0.13 0.10 0.11 0.13 0.14 0.14 0.13 0.12 0.09 0.07 0.04 0.02 0.01 0.00 0.00 0.00 0.00 0.00 0.00 0.00 0.00 0.00 0.00 0.00
0.00 0.00 0.00 0.00 0.00 0.00 0.00 0.00 0.00 0.00 0.00 0.00 0.00 0.01 0.01 0.01 0.00 0.00 0.02 0.06 0.10 0.06 0.07 0.10 0.05 0.04 0.04 0.04 0.05 0.09 0.13 0.09 0.09 0.10 0.07 0.04 0.03 0.01 0.01 0.00 0.00 0.00 0.00 0.00 0.00 0.00 0.00 0.00 0.00 0.00 0.00 0.00 0.00 0.00
0.00 0.00 0.00 0.00 0.00 0.00 0.00 0.00 0.00 0.00 0.01 0.00 0.01 0.01 0.01 0.00 0.00 0.01 0.02 0.06 0.04 0.05 0.05 0.03 0.02 0.03 0.04 0.06 0.06 0.05 0.02 0.02 0.03 0.03 0.03 0.01 0.00 0.00 0.00 0.00 0.00 0.00 0.00 0.00 0.00 0.00 0.00 0.00 0.00 0.00 0.00 0.00 0.00 0.00
0.00 0.00 0.00 0.00 0.00 0.00 0.00 0.00 0.00 0.01 0.01 0.01 0.01 0.01 0.00 0.00 0.00 0.02 0.04 0.05 0.03 0.04 0.06 0.04 0.02 0.02 0.01 0.01 0.01 0.01 0.00 0.00 0.00 0.00 0.00 0.00 0.00 0.00 0.00 0.00 0.00 0.00 0.00 0.00 0.00 0.00 0.00 0.00 0.00 0.00 0.00 0.00 0.00 0.00
0.00 0.00 0.00 0.00 0.00 0.00 0.00 0.00 0.00 0.00 0.01 0.01 0.01 0.00 0.00 0.00 0.01 0.03 0.04 0.03 0.02 0.02 0.02 0.01 0.00 0.00 0.00 0.00 0.00 0.00 0.00 0.00 0.00 0.00 0.00 0.00 0.00 0.00 0.00 0.00 0.00 0.01 0.00 0.00 0.00 0.00 0.00 0.00 0.00 0.00 0.00 0.00 0.00 0.00
0.00 0.00 0.00 0.00 0.00 0.00 0.00 0.00 0.00 0.00 0.01 0.00 0.00 0.00 0.00 0.01 0.04 0.06 0.03 0.02 0.01 0.00 0.00 0.00 0.00 0.00 0.00 0.00 0.00 0.00 0.00 0.00 0.00 0.00 0.00 0.00 0.00 0.00 0.00 0.00 0.00 0.00 0.00 0.00 0.00 0.00 0.00 0.00 0.00 0.00 0.00 0.00 0.00 0.00
0.00 0.00 0.00 0.00 0.00 0.00 0.00 0.00 0.00 0.00 0.00 0.01 0.00 0.01 0.01 0.04 0.07 0.04 0.02 0.01 0.01 0.01 0.00 0.00 0.00 0.00 0.00 0.00 0.00 0.00 0.00 0.01 0.00 0.00 0.00 0.01 0.01 0.01 0.00 0.00 0.00 0.00 0.01 0.00 0.00 0.00 0.00 0.00 0.00 0.00 0.00 0.00 0.00 0.00
0.00 0.00 0.00 0.00 0.00 0.01 0.02 0.01 0.02 0.02 0.00 0.00 0.00 0.01 0.01 0.03 0.05 0.04 0.04 0.05 0.04 0.02 0.02 0.01 0.02 0.02 0.01 0.00 0.00 0.00 0.00 0.00 0.00 0.00 0.00 0.00 0.00 0.00 0.00 0.00 0.00 0.00 0.00 0.00 0.00 0.00 0.00 0.00 0.00 0.00 0.00 0.00 0.00 0.00
0.00 0.00 0.00 0.00 0.00 0.01 0.01 0.01 0.01 0.00 0.01 0.01 0.00 0.00 0.01 0.02 0.02 0.01 0.01 0.01 0.00 0.00 0.01 0.01 0.01 0.01 0.00 0.00 0.00 0.00 0.00 0.00 0.00 0.00 0.00 0.00 0.00 0.00 0.00 0.00 0.00 0.00 0.00 0.00 0.00 0.00 0.00 0.00 0.00 0.00 0.00 0.00 0.00 0.00
0.00 0.00 0.00 0.00 0.01 0.01 0.02 0.05 0.02 0.01 0.01 0.01 0.01 0.00 0.01 0.02 0.02 0.01 0.01 0.01 0.02 0.03 0.02 0.01 0.01 0.00 0.00 0.00 0.00 0.00 0.00 0.00 0.00 0.00 0.00 0.00 0.00 0.00 0.00 0.00 0.00 0.00 0.00 0.00 0.00 0.00 0.00 0.00 0.00 0.00 0.00 0.00 0.00 0.00
0.00 0.00 0.00 0.00 0.01 0.01 0.01 0.02 0.01 0.01 0.01 0.01 0.01 0.02 0.02 0.02 0.02 0.02 0.01 0.01 0.04 0.03 0.01 0.01 0.01 0.00 0.00 0.00 0.00 0.00 0.00 0.00 0.00 0.00 0.00 0.00 0.00 0.00 0.00 0.01 0.00 0.00 0.00 0.00 0.00 0.00 0.00 0.00 0.00 0.00 0.00 0.00 0.00 0.00

GFSWCAN_prec_precacc12_075.txt.gz
Total_Precipitation_Accumulation
0.03 0.07 0.10 0.06 0.05 0.06 0.08 0.09 0.09 0.08 0.09 0.13 0.18 0.08 0.07 0.09 0.20 0.52 0.75 0.37 0.90 0.64 0.08 0.04 0.02 0.00 0.00 0.00 0.01 0.00 0.08 0.14 0.20 0.11 0.05 0.02 0.01 0.01 0.00 0.00 0.03 0.02 0.03 0.05 0.08 0.05 0.01 0.00 0.01 0.01 0.01 0.00 0.00 0.00
0.07 0.14 0.09 0.07 0.05 0.08 0.09 0.18 0.16 0.14 0.10 0.11 0.18 0.10 0.09 0.12 0.25 0.43 0.49 0.39 0.48 0.53 0.20 0.07 0.06 0.00 0.00 0.00 0.00 0.00 0.06 0.06 0.08 0.09 0.06 0.02 0.01 0.01 0.00 0.00 0.00 0.04 0.01 0.02 0.02 0.01 0.00 0.00 0.00 0.01 0.00 0.00 0.00 0.00
0.12 0.16 0.10 0.06 0.04 0.08 0.16 0.19 0.14 0.20 0.18 0.14 0.21 0.15 0.13 0.16 0.30 0.42 0.35 0.37 0.64 0.71 0.32 0.16 0.11 0.01 0.01 0.00 0.01 0.05 0.04 0.02 0.02 0.03 0.05 0.09 0.04 0.01 0.00 0.00 0.00 0.00 0.02 0.09 0.09 0.01 0.03 0.05 0.03 0.01 0.00 0.00 0.00 0.00
0.16 0.15 0.09 0.04 0.05 0.07 0.05 0.04 0.06 0.15 0.18 0.19 0.24 0.23 0.18 0.23 0.32 0.44 0.27 0.24 0.44 0.53 0.44 0.14 0.06 0.09 0.04 0.01 0.01 0.03 0.03 0.04 0.04 0.07 0.13 0.13 0.06 0.02 0.01 0.00 0.00 0.00 0.02 0.03 0.05 0.04 0.06 0.07 0.12 0.05 0.01 0.00 0.00 0.00
0.13 0.12 0.08 0.06 0.05 0.05 0.06 0.07 0.09 0.13 0.18 0.23 0.31 0.26 0.25 0.28 0.44 0.43 0.16 0.18 0.26 0.37 0.28 0.15 0.04 0.13 0.20 0.07 0.07 0.07 0.05 0.14 0.21 0.23 0.18 0.12 0.04 0.03 0.02 0.01 0.00 0.01 0.01 0.01 0.00 0.00 0.01 0.00 0.00 0.01 0.01 0.00 0.00 0.00
0.14 0.13 0.13 0.08 0.05 0.05 0.08 0.11 0.14 0.14 0.21 0.29 0.31 0.27 0.29 0.34 0.49 0.50 0.79 0.47 0.31 0.38 0.47 0.19 0.07 0.05 0.17 0.12 0.07 0.13 0.16 0.16 0.25 0.23 0.16 0.08 0.05 0.11 0.06 0.00 0.00 0.01 0.01 0.01 0.01 0.00 0.00 0.00 0.01 0.01 0.00 0.00 0.00 0.00
0.10 0.10 0.12 0.14 0.14 0.12 0.12 0.12 0.13 0.16 0.24 0.28 0.25 0.30 0.30 0.30 0.38 0.27 0.30 0.23 0.26 0.45 0.60 0.16 0.05 0.02 0.03 0.07 0.06 0.05 0.10 0.17 0.27 0.39 0.21 0.11 0.06 0.11 0.15 0.07 0.00 0.00 0.01 0.02 0.01 0.00 0.00 0.00 0.00 0.00 0.01 0.00 0.00 0.00
0.11 0.11 0.13 0.13 0.14 0.14 0.14 0.15 0.19 0.24 0.27 0.29 0.38 0.41 0.38 0.37 0.34 0.09 0.03 0.04 0.14 0.40 0.25 0.03 0.11 0.07 0.01 0.01 0.02 0.05 0.06 0.11 0.26 0.38 0.29 0.16 0.16 0.21 0.21 0.08 0.02 0.00 0.00 0.01 0.01 0.01 0.00 0.00 0.00 0.02 0.03 0.03 0.01 0.00
0.13 0.15 0.19 0.23 0.23 0.20 0.17 0.15 0.17 0.20 0.23 0.28 0.35 0.39 0.47 0.52 0.32 0.23 0.19 0.03 0.07 0.08 0.02 0.00 0.02 0.10 0.08 0.03 0.07 0.13 0.13 0.09 0.11 0.19 0.18 0.24 0.23 0.41 0.32 0.14 0.06 0.01 0.00 0.00 0.01 0.03 0.03 0.03 0.02 0.01 0.03 0.02 0.00 0.00
0.12 0.13 0.16 0.20 0.22 0.26 0.34 0.32 0.27 0.26 0.25 0.21 0.22 0.31 0.50 0.38 0.30 0.19 0.09 0.02 0.02 0.00 0.01 0.00 0.00 0.05 0.05 0.09 0.13 0.29 0.25 0.09 0.05 0.04 0.10 0.21 0.45 0.36 0.19 0.12 0.10 0.10 0.07 0.02 0.02 0.02 0.02 0.02 0.02 0.02 0.02 0.01 0.01 0.00
0.06 0.05 0.06 0.11 0.14 0.14 0.12 0.10 0.08 0.05 0.03 0.04 0.07 0.23 0.29 0.10 0.04 0.01 0.00 0.00 0.00 0.00 0.00 0.00 0.00 0.02 0.00 0.03 0.19 0.40 0.55 0.25 0.06 0.04 0.09 0.09 0.13 0.22 0.17 0.18 0.19 0.14 0.13 0.10 0.02 0.01 0.01 0.01 0.01 0.00 0.00 0.00 0.00 0.00
0.01 0.00 0.00 0.01 0.02 0.02 0.01 0.00 0.01 0.02 0.01 0.02 0.01 0.01 0.00 0.00 0.00 0.00 0.00 0.00 0.01 0.01 0.04 0.03 0.01 0.00 0.02 0.06 0.10 0.39 0.49 0.55 0.33 0.10 0.09 0.10 0.09 0.03 0.01 0.03 0.06 0.14 0.15 0.10 0.04 0.01 0.00 0.00 0.00 0.00 0.00 0.00 0.00 0.00
0.00 0.00 0.00 0.00 0.00 0.00 0.00 0.00 0.00 0.00 0.02 0.04 0.02 0.00 0.02 0.01 0.03 0.04 0.02 0.03 0.06 0.08 0.07 0.04 0.01 0.02 0.09 0.29 0.35 0.12 0.33 0.18 0.58 0.59 0.24 0.17 0.08 0.04 0.03 0.02 0.02 0.02 0.03 0.07 0.06 0.03 0.01 0.02 0.02 0.02 0.04 0.08 0.07 0.12
0.00 0.00 0.00 0.00 0.00 0.00 0.00 0.00 0.00 0.00 0.03 0.02 0.01 0.02 0.12 0.04 0.11 0.14 0.07 0.09 0.08 0.05 0.04 0.06 0.02 0.02 0.14 0.29 0.26 0.21 0.33 0.37 0.45 0.62 0.27 0.14 0.09 0.11 0.10 0.10 0.08 0.09 0.10 0.12 0.16 0.16 0.17 0.16 0.18 0.20 0.22 0.26 0.22 0.29
0.00 0.00 0.00 0.00 0.00 0.00 0.00 0.00 0.00 0.00 0.00 0.00 0.00 0.03 0.03 0.11 0.06 0.04 0.04 0.04 0.04 0.04 0.04 0.03 0.02 0.02 0.09 0.24 0.24 0.27 0.27 0.24 0.15 0.16 0.24 0.20 0.16 0.13 0.16 0.17 0.16 0.16 0.17 0.21 0.25 0.24 0.26 0.25 0.18 0.27 0.31 0.29 0.21 0.24
0.00 0.00 0.00 0.00 0.00 0.00 0.00 0.00 0.00 0.00 0.00 0.00 0.02 0.03 0.03 0.04 0.02 0.03 0.05 0.03 0.02 0.07 0.07 0.20 0.21 0.11 0.18 0.11 0.14 0.23 0.11 0.11 0.17 0.16 0.20 0.21 0.22 0.21 0.20 0.21 0.24 0.24 0.24 0.25 0.28 0.26 0.26 0.24 0.19 0.25 0.27 0.24 0.24 0.17
0.01 0.01 0.00 0.00 0.00 0.00 0.00 0.00 0.00 0.00 0.00 0.02 0.06 0.04 0.04 0.05 0.06 0.07 0.08 0.07 0.10 0.17 0.09 0.08 0.09 0.14 0.13 0.05 0.08 0.12 0.19 0.25 0.26 0.28 0.26 0.22 0.22 0.26 0.26 0.25 0.27 0.28 0.29 0.29 0.28 0.24 0.26 0.25 0.17 0.12 0.17 0.23 0.15 0.13
0.01 0.00 0.00 0.00 0.00 0.00 0.00 0.00 0.00 0.00 0.04 0.07 0.09 0.11 0.06 0.08 0.07 0.06 0.09 0.09 0.07 0.09 0.02 0.01 0.01 0.01 0.03 0.03 0.05 0.11 0.18 0.12 0.14 0.22 0.32 0.34 0.29 0.26 0.25 0.28 0.30 0.29 0.29 0.31 0.27 0.25 0.23 0.18 0.13 0.17 0.15 0.14 0.08 0.07
0.02 0.00 0.00 0.00 0.00 0.00 0.00 0.01 0.00 0.03 0.11 0.11 0.12 0.11 0.10 0.12 0.13 0.11 0.07 0.05 0.03 0.02 0.01 0.01 0.02 0.04 0.07 0.08 0.12 0.16 0.21 0.14 0.16 0.18 0.21 0.27 0.31 0.31 0.30 0.28 0.28 0.29 0.25 0.25 0.20 0.19 0.18 0.16 0.14 0.12 0.10 0.06 0.07 0.05
0.04 0.02 0.01 0.00 0.00 0.00 0.00 0.03 0.00 0.02 0.11 0.12 0.16 0.11 0.08 0.12 0.11 0.06 0.05 0.04 0.03 0.03 0.06 0.08 0.12 0.15 0.17 0.19 0.20 0.21 0.25 0.16 0.12 0.12 0.16 0.21 0.26 0.23 0.27 0.26 0.26 0.26 0.20 0.18 0.16 0.13 0.10 0.07 0.07 0.05 0.03 0.01 0.01 0.02
0.02 0.01 0.00 0.00 0.00 0.00 0.00 0.01 0.02 0.01 0.04 0.12 0.07 0.04 0.02 0.00 0.00 0.00 0.00 0.00 0.01 0.05 0.12 0.15 0.13 0.14 0.12 0.13 0.14 0.12 0.13 0.09 0.11 0.10 0.13 0.16 0.22 0.18 0.19 0.20 0.18 0.15 0.13 0.12 0.10 0.10 0.06 0.05 0.03 0.01 0.00 0.01 0.01 0.00
0.00 0.00 0.00 0.00 0.00 0.00 0.01 0.01 0.03 0.03 0.01 0.01 0.01 0.01 0.01 0.00 0.00 0.00 0.00 0.00 0.06 0.07 0.08 0.07 0.07 0.06 0.05 0.08 0.09 0.09 0.10 0.08 0.08 0.09 0.11 0.11 0.13 0.14 0.15 0.16 0.12 0.11 0.09 0.07 0.04 0.03 0.02 0.00 0.00 0.01 0.00 0.00 0.00 0.00
0.00 0.00 0.00 0.00 0.00 0.00 0.00 0.00 0.00 0.02 0.01 0.01 0.00 0.00 0.01 0.01 0.00 0.00 0.00 0.03 0.12 0.13 0.06 0.03 0.05 0.05 0.06 0.09 0.06 0.07 0.08 0.06 0.07 0.09 0.10 0.11 0.11 0.11 0.09 0.07 0.04 0.02 0.01 0.00 0.00 0.00 0.00 0.00 0.00 0.00 0.00 0.00 0.00 0.00
0.00 0.00 0.00 0.00 0.00 0.00 0.00 0.00 0.00 0.00 0.00 0.00 0.00 0.01 0.01 0.01 0.00 0.00 0.02 0.06 0.12 0.07 0.07 0.09 0.03 0.03 0.02 0.03 0.04 0.07 0.11 0.07 0.07 0.08 0.07 0.04 0.04 0.03 0.01 0.01 0.00 0.00 0.00 0.00 0.00 0.00 0.00 0.00 0.00 0.00 0.00 0.00 0.00 0.00
0.00 0.00 0.00 0.00 0.00 0.00 0.00 0.00 0.00 0.00 0.00 0.00 0.00 0.01 0.01 0.00 0.00 0.00 0.02 0.06 0.04 0.05 0.04 0.02 0.02 0.02 0.03 0.05 0.05 0.04 0.02 0.02 0.03 0.03 0.04 0.01 0.00 0.00 0.00 0.00 0.00 0.00 0.00 0.00 0.00 0.00 0.00 0.00 0.00 0.00 0.00 0.00 0.00 0.00
0.00 0.00 0.00 0.00 0.00 0.00 0.00 0.00 0.00 0.00 0.00 0.00 0.01 0.01 0.00 0.00 0.00 0.02 0.04 0.05 0.02 0.03 0.05 0.03 0.02 0.01 0.01 0.01 0.01 0.01 0.00 0.00 0.00 0.00 0.00 0.00 0.00 0.00 0.00 0.00 0.00 0.01 0.00 0.00 0.00 0.00 0.00 0.00 0.00 0.00 0.00 0.00 0.00 0.00
0.00 0.00 0.00 0.00 0.00 0.00 0.00 0.00 0.00 0.00 0.00 0.01 0.01 0.00 0.00 0.00 0.01 0.03 0.04 0.03 0.01 0.02 0.02 0.01 0.00 0.00 0.00 0.00 0.00 0.00 0.00 0.00 0.00 0.00 0.00 0.00 0.00 0.00 0.00 0.00 0.00 0.01 0.00 0.00 0.00 0.00 0.00 0.00 0.00 0.00 0.00 0.00 0.00 0.00
0.00 0.00 0.00 0.00 0.00 0.00 0.00 0.00 0.00 0.00 0.01 0.00 0.00 0.00 0.01 0.01 0.03 0.05 0.02 0.01 0.00 0.00 0.00 0.00 0.00 0.00 0.00 0.00 0.00 0.00 0.00 0.00 0.00 0.00 0.00 0.00 0.00 0.00 0.00 0.00 0.00 0.00 0.00 0.00 0.00 0.00 0.00 0.00 0.00 0.00 0.00 0.00 0.00 0.00
0.00 0.00 0.00 0.00 0.00 0.00 0.00 0.01 0.01 0.00 0.00 0.00 0.00 0.01 0.01 0.04 0.06 0.03 0.02 0.01 0.01 0.01 0.01 0.01 0.01 0.00 0.00 0.00 0.00 0.00 0.00 0.01 0.00 0.00 0.00 0.01 0.01 0.01 0.00 0.00 0.00 0.00 0.00 0.00 0.00 0.00 0.00 0.00 0.00 0.00 0.00 0.00 0.00 0.00
0.00 0.00 0.00 0.00 0.00 0.01 0.02 0.01 0.01 0.01 0.00 0.00 0.00 0.01 0.01 0.04 0.06 0.04 0.03 0.04 0.03 0.02 0.01 0.01 0.02 0.01 0.01 0.00 0.00 0.00 0.00 0.00 0.00 0.00 0.00 0.00 0.00 0.00 0.00 0.00 0.00 0.00 0.00 0.00 0.00 0.00 0.00 0.00 0.00 0.00 0.00 0.00 0.00 0.00
0.00 0.00 0.00 0.00 0.01 0.02 0.01 0.01 0.00 0.00 0.00 0.00 0.00 0.00 0.01 0.02 0.02 0.01 0.02 0.02 0.00 0.00 0.01 0.01 0.01 0.00 0.00 0.00 0.00 0.00 0.00 0.00 0.00 0.00 0.00 0.00 0.00 0.00 0.00 0.00 0.00 0.00 0.00 0.00 0.00 0.00 0.00 0.00 0.00 0.00 0.00 0.00 0.00 0.00
0.00 0.00 0.00 0.00 0.01 0.01 0.02 0.04 0.02 0.01 0.01 0.01 0.01 0.00 0.01 0.02 0.01 0.01 0.01 0.01 0.02 0.02 0.02 0.01 0.01 0.00 0.00 0.00 0.00 0.00 0.00 0.00 0.00 0.00 0.00 0.00 0.00 0.00 0.00 0.00 0.00 0.00 0.00 0.00 0.00 0.00 0.00 0.00 0.00 0.00 0.00 0.00 0.00 0.00
0.00 0.00 0.00 0.00 0.01 0.01 0.01 0.01 0.00 0.01 0.01 0.01 0.01 0.02 0.02 0.02 0.02 0.02 0.01 0.01 0.03 0.03 0.01 0.01 0.00 0.00 0.00 0.00 0.00 0.00 0.00 0.00 0.00 0.00 0.00 0.00 0.00 0.00 0.00 0.00 0.00 0.00 0.00 0.00 0.00 0.00 0.00 0.00 0.00 0.00 0.00 0.00 0.00 0.00

GFSWCAN_prec_precacc12_078.txt.gz
Total_Precipitation_Accumulation
0.03 0.07 0.10 0.09 0.09 0.10 0.09 0.08 0.08 0.07 0.09 0.12 0.09 0.08 0.07 0.08 0.15 0.38 0.65 0.38 1.04 0.72 0.12 0.02 0.00 0.00 0.00 0.00 0.00 0.00 0.01 0.03 0.14 0.09 0.05 0.02 0.01 0.01 0.00 0.01 0.01 0.03 0.05 0.03 0.05 0.04 0.01 0.01 0.02 0.03 0.02 0.00 0.00 0.00
0.06 0.12 0.11 0.10 0.06 0.05 0.06 0.15 0.14 0.13 0.09 0.10 0.14 0.11 0.12 0.12 0.19 0.34 0.41 0.35 0.47 0.50 0.19 0.07 0.02 0.00 0.00 0.00 0.00 0.00 0.00 0.01 0.08 0.08 0.06 0.02 0.00 0.00 0.00 0.00 0.00 0.00 0.02 0.02 0.02 0.01 0.01 0.01 0.01 0.03 0.02 0.01 0.00 0.00
0.09 0.14 0.11 0.06 0.03 0.05 0.13 0.17 0.13 0.20 0.18 0.14 0.18 0.17 0.16 0.20 0.24 0.42 0.30 0.30 0.63 0.70 0.24 0.14 0.10 0.01 0.01 0.00 0.01 0.00 0.00 0.01 0.02 0.03 0.05 0.08 0.03 0.00 0.00 0.00 0.00 0.00 0.01 0.02 0.04 0.01 0.03 0.05 0.03 0.01 0.01 0.01 0.00 0.00
0.15 0.12 0.08 0.04 0.04 0.05 0.04 0.05 0.08 0.15 0.19 0.22 0.26 0.25 0.22 0.24 0.32 0.44 0.28 0.20 0.44 0.49 0.34 0.09 0.06 0.09 0.04 0.01 0.01 0.00 0.01 0.02 0.01 0.07 0.10 0.09 0.05 0.02 0.01 0.00 0.00 0.00 0.02 0.03 0.02 0.03 0.04 0.05 0.11 0.05 0.01 0.00 0.00 0.00
0.16 0.10 0.05 0.05 0.05 0.02 0.03 0.06 0.09 0.14 0.18 0.29 0.36 0.27 0.24 0.27 0.44 0.42 0.16 0.15 0.24 0.33 0.23 0.10 0.05 0.14 0.21 0.08 0.07 0.04 0.01 0.09 0.11 0.14 0.15 0.10 0.04 0.03 0.02 0.01 0.00 0.01 0.01 0.01 0.00 0.00 0.01 0.00 0.00 0.01 0.01 0.00 0.00 0.00
0.14 0.12 0.11 0.04 0.03 0.04 0.06 0.07 0.10 0.12 0.20 0.32 0.29 0.25 0.24 0.39 0.64 0.46 0.75 0.46 0.28 0.35 0.45 0.19 0.16 0.07 0.20 0.17 0.12 0.12 0.10 0.13 0.21 0.19 0.12 0.07 0.06 0.11 0.06 0.00 0.00 0.01 0.01 0.01 0.01 0.01 0.00 0.00 0.00 0.00 0.00 0.01 0.00 0.00
0.10 0.10 0.10 0.11 0.07 0.06 0.07 0.06 0.09 0.11 0.17 0.21 0.22 0.27 0.28 0.36 0.37 0.25 0.31 0.24 0.25 0.44 0.74 0.44 0.13 0.12 0.07 0.26 0.16 0.10 0.09 0.09 0.17 0.24 0.16 0.11 0.09 0.13 0.15 0.07 0.00 0.00 0.01 0.02 0.01 0.00 0.00 0.01 0.00 0.01 0.02 0.01 0.00 0.01
0.12 0.13 0.14 0.13 0.12 0.11 0.11 0.13 0.15 0.16 0.16 0.21 0.32 0.35 0.34 0.35 0.32 0.09 0.04 0.04 0.14 0.48 0.53 0.46 0.21 0.20 0.06 0.19 0.13 0.09 0.04 0.04 0.19 0.29 0.25 0.16 0.17 0.19 0.21 0.08 0.02 0.00 0.00 0.01 0.01 0.01 0.00 0.00 0.02 0.03 0.04 0.05 0.02 0.01
0.13 0.15 0.22 0.25 0.23 0.21 0.17 0.16 0.17 0.21 0.27 0.36 0.40 0.41 0.51 0.58 0.45 0.25 0.22 0.07 0.16 0.22 0.25 0.20 0.06 0.16 0.07 0.02 0.03 0.04 0.03 0.02 0.08 0.16 0.16 0.23 0.22 0.41 0.33 0.14 0.06 0.01 0.00 0.00 0.01 0.03 0.03 0.04 0.04 0.04 0.05 0.04 0.02 0.01
0.12 0.13 0.16 0.21 0.25 0.29 0.34 0.34 0.30 0.31 0.33 0.30 0.31 0.49 0.76 0.68 0.41 0.42 0.37 0.21 0.21 0.12 0.13 0.08 0.00 0.02 0.02 0.04 0.04 0.04 0.02 0.01 0.02 0.02 0.07 0.17 0.46 0.38 0.20 0.13 0.10 0.10 0.08 0.03 0.02 0.02 0.02 0.03 0.03 0.03 0.03 0.02 0.02 0.01
0.06 0.05 0.06 0.11 0.16 0.14 0.12 0.10 0.09 0.09 0.12 0.18 0.26 0.51 0.65 0.29 0.18 0.12 0.06 0.06 0.05 0.04 0.03 0.00 0.00 0.00 0.00 0.01 0.10 0.07 0.09 0.01 0.01 0.01 0.04 0.09 0.14 0.22 0.17 0.18 0.19 0.14 0.13 0.14 0.10 0.04 0.02 0.01 0.01 0.01 0.00 0.00 0.00 0.00
0.01 0.01 0.00 0.01 0.02 0.02 0.00 0.00 0.02 0.07 0.08 0.05 0.04 0.08 0.05 0.03 0.00 0.00 0.00 0.00 0.00 0.01 0.01 0.01 0.00 0.00 0.00 0.00 0.04 0.25 0.29 0.39 0.24 0.09 0.08 0.09 0.08 0.02 0.01 0.03 0.06 0.15 0.16 0.13 0.14 0.16 0.15 0.07 0.02 0.00 0.00 0.00 0.00 0.00
0.00 0.00 0.00 0.00 0.00 0.00 0.00 0.00 0.00 0.02 0.01 0.01 0.00 0.00 0.00 0.00 0.01 0.01 0.01 0.02 0.04 0.05 0.05 0.02 0.00 0.00 0.00 0.00 0.00 0.01 0.11 0.20 0.59 0.56 0.18 0.11 0.05 0.03 0.02 0.02 0.02 0.02 0.04 0.07 0.08 0.10 0.12 0.10 0.05 0.03 0.03 0.06 0.05 0.08
0.00 0.00 0.00 0.00 0.00 0.00 0.00 0.00 0.00 0.00 0.00 0.00 0.00 0.00 0.01 0.02 0.05 0.09 0.07 0.07 0.08 0.06 0.04 0.03 0.00 0.00 0.00 0.00 0.01 0.08 0.12 0.22 0.43 0.55 0.21 0.15 0.13 0.11 0.08 0.07 0.06 0.07 0.07 0.07 0.11 0.11 0.13 0.14 0.17 0.19 0.21 0.25 0.19 0.24
0.00 0.00 0.00 0.00 0.00 0.00 0.00 0.00 0.00 0.00 0.00 0.00 0.00 0.02 0.03 0.10 0.06 0.06 0.05 0.05 0.06 0.06 0.03 0.02 0.02 0.01 0.00 0.02 0.10 0.17 0.19 0.18 0.11 0.12 0.24 0.23 0.17 0.12 0.13 0.13 0.13 0.14 0.14 0.15 0.17 0.17 0.21 0.22 0.18 0.27 0.32 0.31 0.23 0.24
0.00 0.00 0.00 0.00 0.00 0.00 0.00 0.00 0.00 0.00 0.00 0.00 0.01 0.03 0.02 0.02 0.02 0.01 0.03 0.04 0.04 0.05 0.04 0.19 0.16 0.07 0.06 0.05 0.10 0.15 0.07 0.08 0.12 0.13 0.17 0.17 0.18 0.17 0.17 0.18 0.22 0.22 0.22 0.24 0.25 0.25 0.26 0.26 0.22 0.27 0.29 0.27 0.27 0.20
0.00 0.00 0.00 0.00 0.00 0.00 0.00 0.00 0.00 0.00 0.00 0.01 0.03 0.03 0.02 0.02 0.03 0.04 0.05 0.04 0.06 0.12 0.07 0.07 0.03 0.08 0.11 0.05 0.08 0.11 0.15 0.21 0.20 0.22 0.21 0.16 0.16 0.22 0.23 0.23 0.26 0.27 0.28 0.28 0.28 0.25 0.27 0.28 0.22 0.14 0.19 0.26 0.18 0.16
0.00 0.00 0.00 0.00 0.00 0.00 0.00 0.00 0.00 0.00 0.01 0.04 0.06 0.07 0.03 0.04 0.04 0.04 0.05 0.03 0.04 0.07 0.02 0.01 0.01 0.01 0.04 0.04 0.05 0.10 0.12 0.08 0.09 0.16 0.27 0.29 0.23 0.20 0.20 0.25 0.28 0.28 0.29 0.31 0.28 0.26 0.25 0.21 0.16 0.19 0.17 0.18 0.12 0.12
0.00 0.00 0.00 0.00 0.00 0.00 0.00 0.00 0.00 0.01 0.06 0.06 0.06 0.04 0.04 0.06 0.07 0.06 0.03 0.01 0.00 0.01 0.00 0.00 0.00 0.01 0.04 0.05 0.08 0.10 0.11 0.08 0.11 0.15 0.17 0.23 0.26 0.26 0.26 0.26 0.27 0.28 0.26 0.26 0.21 0.20 0.20 0.19 0.17 0.15 0.13 0.11 0.10 0.08
0.00 0.00 0.00 0.00 0.00 0.00 0.00 0.00 0.00 0.01 0.07 0.08 0.09 0.04 0.02 0.05 0.04 0.01 0.01 0.01 0.00 0.00 0.01 0.02 0.05 0.07 0.08 0.10 0.12 0.13 0.14 0.10 0.08 0.08 0.12 0.16 0.20 0.19 0.23 0.23 0.24 0.24 0.20 0.19 0.17 0.16 0.13 0.11 0.11 0.08 0.05 0.02 0.01 0.02
0.00 0.00 0.00 0.00 0.00 0.00 0.00 0.01 0.01 0.01 0.03 0.11 0.07 0.03 0.01 0.00 0.00 0.00 0.00 0.00 0.00 0.02 0.06 0.09 0.08 0.09 0.08 0.09 0.09 0.07 0.08 0.05 0.06 0.06 0.09 0.12 0.16 0.14 0.15 0.16 0.15 0.13 0.12 0.13 0.11 0.11 0.08 0.06 0.04 0.01 0.00 0.00 0.01 0.00
0.00 0.00 0.00 0.00 0.00 0.00 0.00 0.00 0.02 0.02 0.00 0.01 0.01 0.01 0.00 0.00 0.00 0.00 0.00 0.01 0.05 0.06 0.07 0.06 0.06 0.04 0.04 0.06 0.07 0.06 0.07 0.04 0.05 0.06 0.07 0.08 0.10 0.11 0.12 0.14 0.11 0.11 0.10 0.08 0.04 0.03 0.02 0.01 0.00 0.00 0.00 0.00 0.00 0.00
0.00 0.00 0.00 0.00 0.00 0.00 0.00 0.00 0.00 0.02 0.01 0.00 0.00 0.00 0.00 0.00 0.00 0.00 0.00 0.03 0.11 0.12 0.04 0.02 0.04 0.03 0.05 0.07 0.04 0.05 0.05 0.03 0.05 0.07 0.08 0.09 0.09 0.10 0.09 0.08 0.05 0.03 0.02 0.00 0.00 0.00 0.00 0.00 0.00 0.00 0.00 0.00 0.00 0.00
0.00 0.00 0.00 0.00 0.00 0.00 0.00 0.00 0.00 0.00 0.00 0.00 0.00 0.01 0.01 0.00 0.00 0.00 0.01 0.05 0.11 0.07 0.06 0.06 0.01 0.01 0.01 0.01 0.03 0.05 0.08 0.05 0.05 0.07 0.06 0.04 0.04 0.04 0.02 0.01 0.01 0.00 0.00 0.00 0.00 0.00 0.00 0.00 0.00 0.00 0.00 0.00 0.00 0.00
0.00 0.00 0.00 0.00 0.00 0.00 0.00 0.00 0.00 0.00 0.00 0.00 0.00 0.01 0.01 0.00 0.00 0.00 0.01 0.05 0.04 0.04 0.03 0.01 0.01 0.01 0.02 0.03 0.04 0.04 0.03 0.02 0.03 0.03 0.05 0.01 0.00 0.00 0.00 0.00 0.00 0.00 0.00 0.00 0.00 0.00 0.00 0.00 0.00 0.00 0.00 0.00 0.00 0.00
0.00 0.00 0.00 0.00 0.00 0.00 0.00 0.00 0.00 0.00 0.00 0.00 0.01 0.01 0.00 0.00 0.00 0.02 0.03 0.03 0.02 0.03 0.04 0.02 0.01 0.01 0.01 0.01 0.02 0.01 0.01 0.01 0.00 0.00 0.00 0.00 0.00 0.00 0.00 0.00 0.00 0.01 0.00 0.00 0.00 0.00 0.00 0.00 0.00 0.00 0.00 0.00 0.00 0.00
0.00 0.00 0.00 0.00 0.00 0.00 0.00 0.00 0.00 0.00 0.00 0.01 0.01 0.00 0.00 0.00 0.01 0.03 0.04 0.02 0.01 0.02 0.01 0.00 0.00 0.00 0.00 0.00 0.00 0.00 0.00 0.00 0.00 0.00 0.00 0.00 0.00 0.00 0.00 0.00 0.00 0.01 0.00 0.00 0.00 0.00 0.00 0.00 0.00 0.00 0.00 0.00 0.00 0.00
0.00 0.00 0.00 0.00 0.00 0.00 0.00 0.00 0.00 0.00 0.01 0.01 0.00 0.00 0.00 0.01 0.02 0.04 0.02 0.01 0.00 0.01 0.00 0.00 0.00 0.00 0.00 0.00 0.00 0.00 0.00 0.00 0.00 0.00 0.00 0.00 0.00 0.00 0.00 0.00 0.00 0.00 0.00 0.00 0.00 0.00 0.00 0.00 0.00 0.00 0.00 0.00 0.00 0.00
0.00 0.00 0.00 0.00 0.00 0.00 0.01 0.00 0.00 0.00 0.00 0.01 0.00 0.01 0.01 0.04 0.05 0.02 0.01 0.01 0.01 0.00 0.00 0.01 0.01 0.00 0.00 0.00 0.00 0.00 0.00 0.01 0.00 0.00 0.00 0.00 0.01 0.01 0.00 0.00 0.00 0.00 0.00 0.00 0.00 0.00 0.00 0.00 0.00 0.00 0.00 0.00 0.00 0.00
0.00 0.00 0.00 0.00 0.00 0.01 0.02 0.01 0.01 0.01 0.00 0.00 0.00 0.01 0.01 0.04 0.06 0.03 0.02 0.03 0.02 0.01 0.01 0.01 0.02 0.01 0.01 0.00 0.00 0.00 0.00 0.00 0.00 0.00 0.00 0.00 0.00 0.00 0.00 0.00 0.00 0.00 0.00 0.00 0.00 0.00 0.00 0.00 0.00 0.00 0.00 0.00 0.00 0.00
0.00 0.00 0.00 0.00 0.01 0.01 0.01 0.00 0.00 0.00 0.00 0.00 0.00 0.00 0.01 0.02 0.02 0.02 0.02 0.02 0.00 0.00 0.00 0.00 0.00 0.00 0.00 0.00 0.00 0.00 0.00 0.00 0.00 0.00 0.00 0.00 0.00 0.00 0.00 0.00 0.00 0.00 0.00 0.00 0.00 0.00 0.00 0.00 0.00 0.00 0.00 0.00 0.00 0.00
0.00 0.00 0.00 0.00 0.01 0.01 0.02 0.03 0.01 0.00 0.01 0.00 0.00 0.00 0.01 0.01 0.01 0.01 0.01 0.01 0.01 0.02 0.01 0.00 0.00 0.00 0.00 0.00 0.00 0.00 0.00 0.00 0.00 0.00 0.00 0.00 0.00 0.00 0.00 0.00 0.00 0.00 0.00 0.00 0.00 0.00 0.00 0.00 0.00 0.00 0.00 0.00 0.00 0.00
0.00 0.00 0.00 0.00 0.00 0.01 0.01 0.01 0.00 0.00 0.01 0.00 0.01 0.01 0.01 0.01 0.01 0.01 0.01 0.01 0.02 0.02 0.01 0.00 0.00 0.00 0.00 0.00 0.00 0.00 0.00 0.00 0.00 0.00 0.00 0.00 0.00 0.00 0.00 0.00 0.00 0.00 0.00 0.00 0.00 0.00 0.00 0.00 0.00 0.00 0.00 0.00 0.00 0.00

GFSWCAN_prec_precacc12_081.txt.gz
Total_Precipitation_Accumulation
0.02 0.03 0.05 0.08 0.10 0.10 0.11 0.11 0.10 0.08 0.08 0.09 0.09 0.08 0.08 0.07 0.09 0.17 0.38 0.25 0.96 0.79 0.19 0.02 0.00 0.00 0.00 0.00 0.01 0.01 0.06 0.03 0.04 0.07 0.05 0.03 0.00 0.00 0.00 0.01 0.04 0.06 0.09 0.06 0.07 0.06 0.02 0.02 0.06 0.07 0.04 0.01 0.02 0.00
0.02 0.06 0.10 0.10 0.07 0.05 0.05 0.13 0.11 0.08 0.08 0.09 0.11 0.11 0.11 0.11 0.11 0.24 0.26 0.12 0.30 0.53 0.27 0.15 0.02 0.00 0.00 0.00 0.00 0.01 0.01 0.00 0.00 0.00 0.02 0.01 0.00 0.00 0.00 0.00 0.00 0.00 0.03 0.04 0.05 0.02 0.02 0.02 0.02 0.04 0.03 0.02 0.02 0.02
0.06 0.11 0.11 0.06 0.03 0.04 0.06 0.07 0.09 0.13 0.13 0.13 0.14 0.14 0.16 0.21 0.19 0.39 0.21 0.09 0.39 0.76 0.29 0.17 0.09 0.00 0.00 0.00 0.01 0.00 0.00 0.00 0.00 0.00 0.01 0.06 0.02 0.00 0.00 0.00 0.00 0.00 0.01 0.01 0.01 0.00 0.01 0.01 0.00 0.01 0.02 0.01 0.02 0.02
0.16 0.09 0.07 0.03 0.04 0.04 0.04 0.05 0.08 0.14 0.19 0.20 0.22 0.20 0.19 0.26 0.38 0.49 0.30 0.11 0.28 0.47 0.30 0.06 0.03 0.04 0.02 0.00 0.00 0.00 0.00 0.01 0.01 0.02 0.02 0.04 0.04 0.02 0.01 0.00 0.00 0.00 0.00 0.02 0.01 0.00 0.00 0.01 0.04 0.04 0.01 0.00 0.00 0.00
0.14 0.07 0.03 0.02 0.04 0.02 0.05 0.06 0.09 0.10 0.12 0.23 0.32 0.23 0.20 0.30 0.55 0.53 0.24 0.10 0.14 0.32 0.19 0.07 0.04 0.06 0.15 0.07 0.06 0.04 0.01 0.04 0.06 0.05 0.03 0.05 0.03 0.03 0.02 0.01 0.00 0.01 0.01 0.01 0.00 0.00 0.00 0.00 0.00 0.01 0.00 0.00 0.00 0.00
0.12 0.09 0.04 0.02 0.04 0.05 0.05 0.05 0.07 0.09 0.19 0.31 0.31 0.27 0.21 0.43 0.89 0.72 0.81 0.43 0.19 0.33 0.42 0.15 0.15 0.07 0.20 0.18 0.12 0.12 0.10 0.11 0.09 0.05 0.01 0.02 0.06 0.11 0.06 0.00 0.00 0.01 0.01 0.01 0.01 0.01 0.00 0.00 0.00 0.00 0.00 0.01 0.00 0.00
0.10 0.10 0.06 0.08 0.05 0.05 0.07 0.07 0.09 0.14 0.25 0.27 0.30 0.31 0.29 0.58 0.54 0.32 0.33 0.25 0.25 0.41 0.62 0.41 0.12 0.12 0.08 0.29 0.18 0.11 0.09 0.09 0.10 0.12 0.07 0.05 0.06 0.11 0.15 0.07 0.00 0.00 0.01 0.02 0.01 0.00 0.00 0.01 0.00 0.01 0.02 0.02 0.01 0.01
0.13 0.16 0.12 0.16 0.12 0.07 0.07 0.09 0.13 0.18 0.25 0.31 0.37 0.36 0.42 0.42 0.40 0.14 0.04 0.04 0.13 0.39 0.50 0.60 0.29 0.25 0.10 0.35 0.26 0.16 0.11 0.10 0.12 0.12 0.07 0.08 0.12 0.16 0.22 0.09 0.02 0.00 0.00 0.01 0.01 0.01 0.00 0.00 0.02 0.03 0.04 0.06 0.04 0.01
0.12 0.16 0.23 0.23 0.26 0.19 0.12 0.13 0.20 0.29 0.38 0.49 0.52 0.50 0.61 0.63 0.47 0.26 0.23 0.07 0.15 0.21 0.27 0.32 0.28 0.36 0.10 0.27 0.29 0.19 0.16 0.15 0.13 0.08 0.04 0.09 0.16 0.42 0.34 0.15 0.07 0.01 0.00 0.00 0.01 0.03 0.03 0.04 0.04 0.04 0.05 0.05 0.03 0.02
0.12 0.10 0.14 0.18 0.20 0.25 0.30 0.29 0.28 0.30 0.32 0.30 0.31 0.52 0.84 0.71 0.41 0.44 0.42 0.24 0.22 0.14 0.16 0.16 0.04 0.21 0.05 0.18 0.17 0.15 0.10 0.09 0.04 0.01 0.03 0.11 0.39 0.36 0.19 0.13 0.11 0.11 0.08 0.03 0.03 0.02 0.02 0.03 0.03 0.03 0.03 0.03 0.02 0.01
0.06 0.04 0.06 0.08 0.08 0.05 0.06 0.08 0.10 0.09 0.11 0.18 0.30 0.72 0.84 0.34 0.26 0.24 0.21 0.15 0.16 0.17 0.23 0.16 0.05 0.06 0.01 0.01 0.02 0.01 0.01 0.00 0.00 0.00 0.03 0.08 0.14 0.21 0.17 0.18 0.19 0.14 0.13 0.14 0.11 0.05 0.02 0.02 0.01 0.01 0.00 0.00 0.00 0.00
0.01 0.00 0.00 0.01 0.01 0.00 0.02 0.06 0.10 0.12 0.11 0.08 0.17 0.24 0.16 0.07 0.03 0.01 0.05 0.06 0.05 0.10 0.17 0.08 0.01 0.00 0.01 0.00 0.00 0.04 0.08 0.06 0.03 0.07 0.08 0.09 0.08 0.02 0.01 0.03 0.06 0.15 0.16 0.13 0.15 0.16 0.16 0.10 0.05 0.02 0.01 0.01 0.01 0.01
0.00 0.00 0.00 0.00 0.00 0.00 0.00 0.02 0.06 0.04 0.01 0.00 0.00 0.00 0.00 0.00 0.00 0.01 0.01 0.02 0.04 0.07 0.05 0.01 0.00 0.00 0.00 0.00 0.00 0.01 0.10 0.18 0.31 0.33 0.16 0.09 0.05 0.02 0.02 0.02 0.02 0.02 0.04 0.08 0.08 0.11 0.13 0.18 0.21 0.18 0.14 0.12 0.08 0.09
0.00 0.00 0.00 0.00 0.00 0.00 0.00 0.00 0.00 0.00 0.00 0.00 0.00 0.00 0.00 0.01 0.04 0.06 0.06 0.06 0.07 0.07 0.04 0.00 0.00 0.00 0.00 0.00 0.01 0.06 0.11 0.15 0.22 0.18 0.14 0.12 0.11 0.10 0.06 0.04 0.03 0.05 0.06 0.07 0.09 0.10 0.12 0.13 0.18 0.24 0.28 0.31 0.24 0.26
0.00 0.00 0.00 0.00 0.00 0.00 0.00 0.00 0.00 0.00 0.00 0.00 0.00 0.01 0.03 0.09 0.07 0.07 0.07 0.06 0.06 0.06 0.03 0.00 0.00 0.01 0.00 0.01 0.02 0.07 0.05 0.02 0.03 0.05 0.17 0.19 0.15 0.12 0.10 0.07 0.07 0.09 0.11 0.13 0.14 0.13 0.16 0.18 0.15 0.24 0.31 0.31 0.25 0.26
0.00 0.00 0.00 0.00 0.00 0.00 0.00 0.00 0.00 0.00 0.00 0.00 0.01 0.03 0.02 0.03 0.04 0.03 0.05 0.05 0.05 0.05 0.02 0.14 0.11 0.06 0.04 0.00 0.01 0.04 0.03 0.05 0.07 0.09 0.13 0.16 0.16 0.15 0.13 0.13 0.16 0.18 0.19 0.22 0.23 0.22 0.22 0.23 0.20 0.25 0.27 0.26 0.29 0.23
0.00 0.00 0.00 0.00 0.00 0.00 0.00 0.00 0.00 0.00 0.00 0.00 0.01 0.02 0.02 0.02 0.04 0.04 0.05 0.03 0.03 0.03 0.01 0.05 0.02 0.05 0.08 0.04 0.05 0.07 0.07 0.10 0.11 0.14 0.16 0.12 0.11 0.16 0.18 0.17 0.19 0.22 0.24 0.25 0.26 0.25 0.26 0.28 0.23 0.15 0.20 0.28 0.22 0.21
0.00 0.00 0.00 0.00 0.00 0.00 0.00 0.00 0.00 0.00 0.00 0.02 0.03 0.06 0.03 0.03 0.03 0.02 0.03 0.02 0.02 0.03 0.01 0.01 0.00 0.01 0.05 0.05 0.04 0.07 0.06 0.07 0.07 0.10 0.14 0.17 0.15 0.14 0.15 0.19 0.23 0.23 0.25 0.28 0.26 0.25 0.24 0.22 0.17 0.20 0.19 0.21 0.16 0.16
0.00 0.00 0.00 0.00 0.00 0.00 0.00 0.00 0.00 0.00 0.03 0.03 0.04 0.02 0.02 0.04 0.04 0.04 0.02 0.00 0.00 0.01 0.00 0.00 0.00 0.01 0.04 0.04 0.06 0.07 0.05 0.03 0.06 0.09 0.10 0.14 0.17 0.19 0.20 0.20 0.22 0.24 0.23 0.24 0.21 0.20 0.21 0.20 0.18 0.17 0.16 0.14 0.11 0.10
0.00 0.00 0.00 0.00 0.00 0.00 0.00 0.00 0.00 0.00 0.04 0.05 0.04 0.01 0.01 0.02 0.01 0.00 0.00 0.00 0.00 0.00 0.01 0.01 0.03 0.06 0.06 0.07 0.07 0.06 0.05 0.03 0.02 0.03 0.07 0.10 0.14 0.15 0.18 0.19 0.20 0.20 0.18 0.18 0.17 0.16 0.15 0.13 0.13 0.10 0.06 0.02 0.01 0.01
0.00 0.00 0.00 0.00 0.00 0.00 0.00 0.00 0.01 0.00 0.01 0.06 0.03 0.01 0.00 0.00 0.00 0.00 0.00 0.00 0.00 0.01 0.03 0.06 0.06 0.07 0.07 0.07 0.07 0.03 0.03 0.02 0.02 0.02 0.04 0.07 0.10 0.09 0.10 0.12 0.12 0.11 0.11 0.12 0.10 0.11 0.08 0.05 0.04 0.01 0.00 0.00 0.00 0.00
0.00 0.00 0.00 0.00 0.00 0.00 0.00 0.00 0.01 0.01 0.00 0.00 0.01 0.01 0.00 0.00 0.00 0.00 0.00 0.00 0.04 0.05 0.05 0.05 0.05 0.04 0.03 0.04 0.05 0.04 0.05 0.03 0.03 0.04 0.05 0.05 0.07 0.08 0.09 0.11 0.09 0.09 0.08 0.07 0.04 0.02 0.01 0.00 0.00 0.00 0.00 0.00 0.00 0.00
0.00 0.00 0.00 0.00 0.00 0.00 0.01 0.00 0.00 0.02 0.00 0.00 0.00 0.00 0.00 0.00 0.00 0.00 0.00 0.02 0.08 0.08 0.03 0.02 0.03 0.03 0.03 0.05 0.03 0.04 0.04 0.02 0.03 0.05 0.06 0.07 0.07 0.08 0.08 0.08 0.05 0.03 0.02 0.00 0.00 0.00 0.00 0.00 0.00 0.00 0.00 0.00 0.00 0.00
0.00 0.00 0.00 0.00 0.00 0.00 0.00 0.00 0.00 0.00 0.00 0.00 0.00 0.01 0.01 0.00 0.00 0.00 0.01 0.04 0.10 0.07 0.04 0.03 0.01 0.01 0.01 0.01 0.02 0.04 0.06 0.03 0.03 0.05 0.05 0.04 0.04 0.04 0.02 0.01 0.01 0.00 0.00 0.00 0.00 0.00 0.00 0.00 0.00 0.00 0.00 0.00 0.00 0.00
0.00 0.00 0.00 0.00 0.00 0.00 0.00 0.00 0.00 0.00 0.00 0.00 0.00 0.01 0.00 0.00 0.00 0.00 0.00 0.03 0.04 0.03 0.03 0.01 0.01 0.01 0.01 0.03 0.03 0.04 0.03 0.02 0.02 0.03 0.04 0.00 0.00 0.00 0.00 0.00 0.00 0.00 0.00 0.00 0.00 0.00 0.00 0.00 0.00 0.00 0.00 0.00 0.00 0.00
0.00 0.00 0.00 0.00 0.00 0.00 0.00 0.00 0.00 0.00 0.00 0.00 0.01 0.00 0.00 0.00 0.00 0.01 0.01 0.02 0.02 0.02 0.02 0.01 0.01 0.01 0.01 0.01 0.02 0.01 0.01 0.01 0.00 0.00 0.00 0.00 0.00 0.00 0.00 0.00 0.00 0.00 0.00 0.00 0.00 0.00 0.00 0.00 0.00 0.00 0.00 0.00 0.00 0.00
0.00 0.00 0.00 0.00 0.00 0.00 0.00 0.00 0.00 0.00 0.00 0.01 0.00 0.00 0.00 0.00 0.00 0.02 0.03 0.01 0.01 0.02 0.02 0.01 0.00 0.00 0.00 0.00 0.00 0.00 0.00 0.00 0.00 0.00 0.00 0.00 0.00 0.00 0.00 0.00 0.00 0.01 0.00 0.00 0.00 0.00 0.00 0.00 0.00 0.00 0.00 0.00 0.00 0.00
0.00 0.00 0.00 0.00 0.00 0.00 0.00 0.00 0.00 0.00 0.01 0.01 0.00 0.00 0.00 0.01 0.02 0.03 0.02 0.02 0.01 0.01 0.00 0.00 0.00 0.00 0.00 0.00 0.00 0.00 0.00 0.00 0.00 0.00 0.00 0.00 0.00 0.00 0.00 0.00 0.00 0.00 0.00 0.00 0.00 0.00 0.00 0.00 0.00 0.00 0.00 0.00 0.00 0.00
0.00 0.00 0.00 0.00 0.00 0.00 0.01 0.01 0.01 0.00 0.01 0.00 0.00 0.01 0.01 0.03 0.03 0.02 0.02 0.01 0.01 0.00 0.00 0.00 0.01 0.00 0.00 0.00 0.00 0.00 0.00 0.00 0.00 0.00 0.00 0.00 0.00 0.00 0.00 0.00 0.00 0.00 0.00 0.00 0.00 0.00 0.00 0.00 0.00 0.00 0.00 0.00 0.00 0.00
0.00 0.00 0.00 0.00 0.00 0.01 0.02 0.01 0.00 0.00 0.00 0.00 0.00 0.01 0.01 0.04 0.06 0.03 0.01 0.02 0.01 0.00 0.00 0.00 0.01 0.00 0.00 0.00 0.00 0.00 0.00 0.00 0.00 0.00 0.00 0.00 0.00 0.00 0.00 0.01 0.00 0.00 0.00 0.00 0.00 0.00 0.00 0.00 0.01 0.00 0.00 0.00 0.00 0.00
0.00 0.00 0.00 0.00 0.00 0.01 0.00 0.00 0.00 0.00 0.00 0.00 0.00 0.00 0.01 0.02 0.02 0.02 0.02 0.03 0.00 0.00 0.00 0.00 0.00 0.00 0.00 0.00 0.00 0.00 0.00 0.00 0.00 0.00 0.00 0.00 0.00 0.00 0.00 0.00 0.00 0.00 0.00 0.00 0.00 0.00 0.00 0.00 0.00 0.00 0.00 0.00 0.00 0.00
0.00 0.00 0.00 0.00 0.01 0.01 0.01 0.02 0.00 0.00 0.00 0.00 0.00 0.00 0.00 0.00 0.00 0.00 0.02 0.02 0.01 0.01 0.00 0.00 0.00 0.00 0.00 0.00 0.00 0.00 0.00 0.00 0.00 0.00 0.00 0.00 0.00 0.00 0.00 0.01 0.01 0.00 0.00 0.00 0.00 0.00 0.00 0.00 0.00 0.00 0.00 0.00 0.00 0.00
0.00 0.00 0.00 0.00 0.00 0.01 0.01 0.01 0.00 0.00 0.00 0.00 0.01 0.01 0.01 0.01 0.00 0.01 0.01 0.01 0.01 0.01 0.01 0.00 0.00 0.00 0.00 0.00 0.00 0.00 0.00 0.00 0.00 0.00 0.00 0.00 0.00 0.00 0.00 0.00 0.00 0.00 0.00 0.00 0.00 0.00 0.00 0.00 0.00 0.00 0.00 0.00 0.00 0.00

GFSWCAN_prec_precacc12_084.txt.gz
Total_Precipitation_Accumulation
0.01 0.01 0.02 0.05 0.07 0.09 0.08 0.09 0.08 0.08 0.09 0.11 0.13 0.10 0.08 0.07 0.09 0.15 0.17 0.31 0.76 0.55 0.19 0.02 0.00 0.01 0.01 0.02 0.04 0.04 0.15 0.14 0.16 0.15 0.09 0.04 0.00 0.00 0.00 0.01 0.08 0.14 0.11 0.07 0.09 0.10 0.04 0.03 0.06 0.10 0.14 0.07 0.04 0.03
0.02 0.05 0.07 0.08 0.05 0.04 0.04 0.04 0.05 0.06 0.07 0.08 0.11 0.13 0.12 0.10 0.10 0.20 0.16 0.14 0.28 0.37 0.29 0.18 0.03 0.00 0.00 0.00 0.01 0.03 0.03 0.00 0.01 0.02 0.01 0.02 0.02 0.01 0.00 0.00 0.00 0.01 0.08 0.12 0.08 0.05 0.03 0.02 0.02 0.05 0.04 0.03 0.03 0.03
0.11 0.11 0.08 0.06 0.03 0.04 0.05 0.05 0.07 0.09 0.10 0.10 0.11 0.16 0.18 0.21 0.17 0.34 0.21 0.08 0.24 0.46 0.21 0.21 0.12 0.00 0.00 0.00 0.00 0.00 0.00 0.00 0.00 0.01 0.01 0.02 0.01 0.00 0.00 0.00 0.00 0.00 0.01 0.01 0.02 0.01 0.01 0.01 0.00 0.01 0.02 0.01 0.02 0.03
0.15 0.06 0.02 0.02 0.03 0.04 0.04 0.04 0.07 0.09 0.14 0.20 0.16 0.15 0.20 0.27 0.35 0.46 0.30 0.06 0.06 0.12 0.22 0.06 0.03 0.05 0.02 0.00 0.00 0.00 0.00 0.00 0.01 0.01 0.01 0.02 0.01 0.00 0.00 0.00 0.00 0.00 0.00 0.02 0.01 0.00 0.00 0.00 0.00 0.00 0.00 0.00 0.00 0.00
0.09 0.04 0.01 0.02 0.03 0.02 0.04 0.05 0.06 0.06 0.10 0.22 0.26 0.19 0.16 0.30 0.54 0.61 0.27 0.05 0.01 0.08 0.16 0.06 0.04 0.05 0.08 0.05 0.02 0.01 0.00 0.03 0.06 0.06 0.03 0.01 0.01 0.02 0.02 0.02 0.00 0.00 0.01 0.01 0.00 0.00 0.00 0.00 0.00 0.00 0.00 0.00 0.00 0.00
0.08 0.06 0.05 0.05 0.04 0.04 0.03 0.03 0.05 0.07 0.15 0.25 0.28 0.25 0.19 0.42 1.02 1.00 0.85 0.35 0.06 0.25 0.46 0.16 0.14 0.05 0.07 0.10 0.09 0.08 0.07 0.08 0.08 0.08 0.06 0.03 0.03 0.05 0.04 0.02 0.01 0.01 0.01 0.01 0.01 0.01 0.00 0.00 0.00 0.00 0.00 0.01 0.00 0.00
0.11 0.08 0.10 0.09 0.04 0.05 0.05 0.05 0.07 0.12 0.21 0.23 0.26 0.30 0.29 0.69 0.85 0.34 0.26 0.17 0.16 0.41 0.64 0.41 0.11 0.13 0.09 0.23 0.14 0.09 0.08 0.10 0.11 0.09 0.05 0.04 0.07 0.07 0.04 0.07 0.00 0.00 0.01 0.02 0.01 0.00 0.00 0.01 0.00 0.01 0.02 0.02 0.01 0.01
0.13 0.15 0.10 0.18 0.10 0.07 0.07 0.10 0.15 0.21 0.23 0.29 0.36 0.32 0.47 0.58 0.50 0.18 0.03 0.03 0.13 0.43 0.52 0.60 0.28 0.28 0.13 0.38 0.29 0.19 0.14 0.12 0.16 0.12 0.07 0.06 0.10 0.12 0.13 0.06 0.02 0.00 0.00 0.01 0.01 0.01 0.00 0.00 0.02 0.03 0.04 0.06 0.04 0.02
0.09 0.12 0.12 0.18 0.19 0.15 0.12 0.16 0.25 0.35 0.46 0.55 0.53 0.61 0.81 0.80 0.63 0.25 0.18 0.06 0.15 0.23 0.28 0.33 0.38 0.44 0.13 0.29 0.33 0.23 0.18 0.21 0.19 0.12 0.05 0.11 0.10 0.21 0.16 0.04 0.05 0.01 0.00 0.01 0.01 0.02 0.03 0.04 0.04 0.04 0.05 0.05 0.04 0.02
0.05 0.05 0.09 0.16 0.19 0.19 0.20 0.19 0.23 0.29 0.29 0.27 0.33 0.56 0.95 0.77 0.37 0.43 0.45 0.30 0.25 0.16 0.17 0.17 0.06 0.33 0.12 0.25 0.25 0.32 0.15 0.19 0.10 0.14 0.06 0.09 0.13 0.10 0.03 0.06 0.10 0.11 0.08 0.03 0.02 0.02 0.02 0.03 0.03 0.03 0.03 0.03 0.02 0.02
0.03 0.02 0.05 0.07 0.08 0.06 0.07 0.08 0.09 0.09 0.12 0.18 0.32 0.82 0.92 0.36 0.28 0.26 0.25 0.19 0.18 0.20 0.23 0.16 0.09 0.22 0.10 0.13 0.10 0.17 0.08 0.07 0.07 0.07 0.09 0.11 0.08 0.06 0.02 0.07 0.12 0.13 0.14 0.14 0.11 0.05 0.02 0.02 0.01 0.01 0.01 0.00 0.00 0.00
0.01 0.00 0.00 0.01 0.02 0.01 0.03 0.06 0.10 0.12 0.11 0.08 0.20 0.29 0.19 0.11 0.06 0.04 0.08 0.13 0.07 0.15 0.26 0.18 0.14 0.19 0.07 0.14 0.13 0.03 0.05 0.03 0.04 0.09 0.10 0.09 0.07 0.01 0.01 0.01 0.01 0.08 0.16 0.13 0.15 0.17 0.16 0.11 0.05 0.03 0.02 0.02 0.02 0.03
0.00 0.00 0.00 0.00 0.00 0.00 0.00 0.02 0.06 0.04 0.01 0.00 0.00 0.01 0.01 0.00 0.00 0.01 0.02 0.02 0.04 0.09 0.14 0.11 0.13 0.07 0.04 0.06 0.04 0.01 0.09 0.16 0.25 0.16 0.10 0.06 0.03 0.01 0.01 0.01 0.01 0.02 0.04 0.08 0.09 0.11 0.14 0.19 0.21 0.18 0.15 0.14 0.10 0.10
0.00 0.00 0.00 0.00 0.00 0.00 0.00 0.00 0.00 0.00 0.00 0.00 0.00 0.00 0.00 0.01 0.03 0.05 0.06 0.06 0.08 0.11 0.08 0.03 0.00 0.00 0.01 0.00 0.01 0.04 0.07 0.11 0.16 0.07 0.07 0.09 0.09 0.07 0.04 0.03 0.03 0.04 0.05 0.05 0.07 0.07 0.08 0.10 0.15 0.19 0.25 0.30 0.29 0.32
0.00 0.00 0.00 0.00 0.00 0.00 0.00 0.00 0.00 0.00 0.00 0.00 0.00 0.01 0.02 0.08 0.07 0.08 0.08 0.08 0.09 0.07 0.02 0.00 0.00 0.00 0.00 0.00 0.01 0.04 0.02 0.01 0.02 0.04 0.09 0.12 0.10 0.09 0.07 0.05 0.05 0.06 0.08 0.09 0.10 0.08 0.11 0.12 0.11 0.18 0.24 0.26 0.24 0.28
0.00 0.00 0.00 0.00 0.00 0.00 0.00 0.00 0.00 0.00 0.00 0.00 0.01 0.03 0.02 0.04 0.05 0.05 0.06 0.06 0.06 0.04 0.01 0.04 0.03 0.02 0.01 0.00 0.00 0.01 0.01 0.02 0.04 0.06 0.09 0.09 0.09 0.10 0.10 0.09 0.10 0.11 0.12 0.14 0.16 0.14 0.15 0.16 0.15 0.19 0.22 0.22 0.24 0.21
0.00 0.00 0.00 0.00 0.00 0.00 0.00 0.00 0.00 0.00 0.00 0.00 0.01 0.03 0.02 0.03 0.05 0.05 0.04 0.02 0.01 0.01 0.01 0.02 0.00 0.03 0.05 0.02 0.03 0.03 0.04 0.06 0.05 0.07 0.08 0.09 0.09 0.11 0.14 0.13 0.13 0.14 0.16 0.17 0.19 0.20 0.22 0.24 0.20 0.14 0.18 0.26 0.22 0.21
0.00 0.00 0.00 0.00 0.00 0.00 0.00 0.00 0.00 0.00 0.00 0.02 0.02 0.05 0.02 0.03 0.03 0.02 0.01 0.00 0.00 0.00 0.00 0.00 0.00 0.01 0.05 0.05 0.04 0.06 0.05 0.05 0.05 0.05 0.06 0.08 0.09 0.10 0.10 0.13 0.16 0.17 0.17 0.19 0.19 0.20 0.21 0.22 0.18 0.21 0.19 0.23 0.17 0.18
0.00 0.00 0.00 0.00 0.00 0.00 0.00 0.00 0.00 0.00 0.02 0.02 0.03 0.02 0.01 0.02 0.02 0.02 0.00 0.00 0.00 0.00 0.00 0.00 0.00 0.01 0.03 0.05 0.06 0.06 0.03 0.02 0.03 0.05 0.06 0.07 0.09 0.10 0.11 0.12 0.14 0.17 0.17 0.19 0.19 0.18 0.20 0.20 0.18 0.18 0.16 0.15 0.12 0.11
0.00 0.00 0.00 0.00 0.00 0.00 0.00 0.00 0.00 0.00 0.01 0.02 0.01 0.00 0.00 0.01 0.00 0.00 0.00 0.00 0.00 0.00 0.00 0.01 0.03 0.04 0.05 0.05 0.05 0.04 0.03 0.02 0.01 0.02 0.04 0.06 0.08 0.09 0.11 0.12 0.13 0.15 0.14 0.15 0.15 0.15 0.14 0.12 0.13 0.10 0.07 0.03 0.01 0.01
0.00 0.00 0.00 0.00 0.00 0.00 0.00 0.00 0.00 0.00 0.01 0.04 0.01 0.00 0.00 0.00 0.00 0.00 0.00 0.00 0.00 0.01 0.03 0.05 0.05 0.06 0.06 0.06 0.05 0.03 0.03 0.02 0.02 0.01 0.02 0.05 0.07 0.06 0.08 0.09 0.09 0.09 0.09 0.10 0.09 0.10 0.07 0.05 0.04 0.01 0.00 0.00 0.00 0.00
0.00 0.00 0.00 0.00 0.00 0.00 0.00 0.00 0.00 0.00 0.00 0.00 0.01 0.00 0.00 0.00 0.00 0.00 0.00 0.00 0.03 0.05 0.04 0.05 0.04 0.04 0.03 0.03 0.04 0.03 0.04 0.02 0.02 0.02 0.03 0.04 0.05 0.06 0.07 0.09 0.07 0.07 0.07 0.06 0.03 0.02 0.01 0.00 0.00 0.00 0.00 0.00 0.00 0.00
0.00 0.00 0.00 0.00 0.00 0.00 0.01 0.00 0.00 0.01 0.00 0.00 0.00 0.00 0.00 0.00 0.00 0.00 0.00 0.02 0.06 0.08 0.04 0.03 0.03 0.03 0.03 0.04 0.02 0.03 0.03 0.01 0.02 0.03 0.04 0.05 0.06 0.07 0.07 0.07 0.05 0.04 0.02 0.00 0.00 0.00 0.00 0.00 0.00 0.00 0.00 0.00 0.00 0.00
0.00 0.00 0.00 0.00 0.00 0.00 0.00 0.00 0.00 0.00 0.00 0.00 0.00 0.01 0.00 0.00 0.00 0.00 0.00 0.02 0.07 0.05 0.02 0.02 0.01 0.01 0.01 0.01 0.02 0.03 0.04 0.02 0.03 0.04 0.05 0.03 0.04 0.04 0.02 0.01 0.00 0.00 0.00 0.00 0.00 0.00 0.00 0.00 0.00 0.00 0.00 0.00 0.00 0.00
0.00 0.00 0.00 0.00 0.00 0.00 0.00 0.00 0.00 0.00 0.00 0.00 0.00 0.01 0.00 0.00 0.00 0.00 0.00 0.02 0.03 0.02 0.02 0.01 0.00 0.00 0.01 0.02 0.02 0.03 0.03 0.02 0.02 0.02 0.02 0.00 0.00 0.00 0.00 0.00 0.00 0.00 0.00 0.00 0.00 0.00 0.00 0.00 0.00 0.00 0.00 0.00 0.00 0.00
0.00 0.00 0.00 0.00 0.00 0.00 0.00 0.00 0.00 0.00 0.00 0.00 0.01 0.00 0.00 0.00 0.00 0.01 0.01 0.01 0.02 0.02 0.02 0.01 0.01 0.01 0.01 0.01 0.01 0.01 0.01 0.01 0.00 0.00 0.00 0.00 0.00 0.00 0.00 0.00 0.00 0.00 0.00 0.00 0.00 0.00 0.00 0.00 0.00 0.00 0.00 0.00 0.00 0.00
0.00 0.00 0.00 0.00 0.00 0.00 0.00 0.00 0.00 0.00 0.00 0.01 0.00 0.00 0.00 0.00 0.00 0.02 0.02 0.01 0.01 0.02 0.02 0.01 0.01 0.00 0.00 0.00 0.00 0.00 0.00 0.00 0.00 0.00 0.00 0.00 0.00 0.00 0.00 0.00 0.00 0.00 0.00 0.00 0.00 0.00 0.00 0.00 0.00 0.00 0.00 0.00 0.00 0.00
0.00 0.00 0.00 0.00 0.00 0.00 0.00 0.00 0.00 0.00 0.01 0.01 0.00 0.00 0.00 0.00 0.01 0.02 0.01 0.02 0.01 0.01 0.00 0.00 0.00 0.00 0.00 0.00 0.00 0.00 0.00 0.00 0.00 0.00 0.00 0.00 0.00 0.00 0.00 0.00 0.00 0.00 0.00 0.00 0.00 0.00 0.00 0.00 0.00 0.00 0.00 0.00 0.00 0.00
0.00 0.00 0.00 0.00 0.00 0.00 0.01 0.00 0.00 0.01 0.01 0.00 0.00 0.01 0.01 0.02 0.03 0.02 0.02 0.01 0.01 0.00 0.00 0.00 0.01 0.00 0.00 0.00 0.00 0.00 0.00 0.00 0.00 0.00 0.00 0.00 0.00 0.00 0.00 0.00 0.00 0.00 0.00 0.00 0.00 0.00 0.00 0.00 0.00 0.00 0.00 0.00 0.00 0.00
0.00 0.00 0.00 0.00 0.00 0.01 0.02 0.01 0.00 0.00 0.00 0.00 0.00 0.01 0.01 0.03 0.05 0.03 0.01 0.01 0.01 0.00 0.00 0.00 0.00 0.00 0.00 0.00 0.00 0.00 0.00 0.00 0.00 0.00 0.00 0.00 0.00 0.00 0.00 0.00 0.00 0.00 0.00 0.00 0.00 0.00 0.01 0.01 0.01 0.00 0.00 0.00 0.00 0.00
0.00 0.00 0.00 0.00 0.01 0.01 0.00 0.00 0.00 0.00 0.00 0.00 0.00 0.00 0.01 0.02 0.03 0.03 0.03 0.02 0.01 0.00 0.00 0.00 0.00 0.00 0.00 0.00 0.00 0.00 0.00 0.00 0.00 0.00 0.00 0.00 0.00 0.00 0.00 0.00 0.00 0.00 0.00 0.00 0.00 0.00 0.00 0.00 0.00 0.00 0.00 0.00 0.00 0.00
0.00 0.00 0.00 0.00 0.01 0.01 0.01 0.01 0.00 0.00 0.00 0.00 0.00 0.00 0.00 0.00 0.00 0.01 0.02 0.02 0.01 0.00 0.00 0.00 0.00 0.00 0.00 0.00 0.00 0.00 0.00 0.00 0.00 0.00 0.00 0.00 0.00 0.00 0.00 0.00 0.00 0.00 0.00 0.00 0.00 0.00 0.00 0.00 0.00 0.00 0.00 0.00 0.00 0.00
0.00 0.00 0.00 0.00 0.00 0.00 0.01 0.01 0.00 0.00 0.00 0.00 0.01 0.01 0.01 0.00 0.00 0.00 0.01 0.01 0.01 0.00 0.01 0.00 0.00 0.00 0.00 0.00 0.00 0.00 0.00 0.00 0.00 0.00 0.00 0.00 0.00 0.00 0.00 0.00 0.00 0.00 0.00 0.00 0.00 0.00 0.00 0.00 0.00 0.00 0.00 0.00 0.00 0.00

GFSWCAN_prec_precacc12_087.txt.gz
Total_Precipitation_Accumulation
0.02 0.01 0.02 0.05 0.07 0.08 0.07 0.07 0.06 0.06 0.07 0.10 0.11 0.09 0.06 0.07 0.10 0.15 0.12 0.28 0.65 0.41 0.18 0.03 0.00 0.01 0.04 0.07 0.12 0.10 0.22 0.21 0.26 0.23 0.13 0.07 0.01 0.00 0.00 0.01 0.12 0.17 0.11 0.08 0.08 0.12 0.06 0.03 0.07 0.14 0.27 0.26 0.41 0.28
0.02 0.05 0.06 0.06 0.04 0.03 0.03 0.03 0.04 0.04 0.04 0.05 0.09 0.12 0.14 0.11 0.10 0.17 0.10 0.12 0.34 0.34 0.23 0.18 0.04 0.00 0.00 0.00 0.05 0.11 0.04 0.02 0.02 0.06 0.05 0.05 0.04 0.02 0.00 0.00 0.00 0.02 0.11 0.19 0.11 0.08 0.08 0.02 0.03 0.05 0.03 0.03 0.03 0.05
0.09 0.07 0.04 0.03 0.02 0.02 0.04 0.05 0.05 0.05 0.06 0.05 0.06 0.14 0.17 0.24 0.17 0.23 0.14 0.09 0.30 0.50 0.14 0.16 0.10 0.00 0.00 0.00 0.01 0.03 0.02 0.04 0.02 0.03 0.08 0.06 0.03 0.01 0.01 0.00 0.00 0.00 0.01 0.10 0.06 0.07 0.04 0.01 0.01 0.01 0.01 0.01 0.01 0.02
0.12 0.05 0.01 0.01 0.03 0.04 0.04 0.04 0.06 0.06 0.09 0.14 0.11 0.10 0.19 0.28 0.37 0.31 0.23 0.07 0.08 0.13 0.13 0.03 0.00 0.01 0.00 0.00 0.02 0.01 0.02 0.03 0.06 0.05 0.07 0.07 0.02 0.00 0.00 0.00 0.00 0.00 0.00 0.00 0.01 0.01 0.01 0.02 0.00 0.00 0.00 0.00 0.00 0.00
0.08 0.04 0.01 0.02 0.03 0.02 0.03 0.04 0.04 0.05 0.07 0.16 0.19 0.16 0.16 0.32 0.51 0.52 0.28 0.05 0.01 0.05 0.07 0.02 0.02 0.01 0.01 0.03 0.03 0.03 0.03 0.06 0.11 0.10 0.06 0.03 0.02 0.03 0.02 0.01 0.01 0.00 0.00 0.01 0.02 0.00 0.00 0.00 0.00 0.00 0.00 0.00 0.00 0.00
0.08 0.06 0.07 0.06 0.03 0.02 0.03 0.02 0.03 0.05 0.09 0.18 0.23 0.25 0.19 0.44 1.11 1.24 1.07 0.43 0.04 0.07 0.12 0.09 0.12 0.03 0.03 0.08 0.08 0.07 0.06 0.10 0.15 0.13 0.08 0.07 0.05 0.08 0.07 0.05 0.02 0.00 0.00 0.00 0.00 0.00 0.00 0.00 0.00 0.00 0.00 0.01 0.00 0.00
0.12 0.11 0.11 0.09 0.02 0.01 0.03 0.05 0.07 0.11 0.16 0.17 0.24 0.27 0.31 0.77 1.06 0.51 0.31 0.18 0.03 0.08 0.27 0.37 0.12 0.13 0.09 0.23 0.15 0.13 0.11 0.11 0.14 0.17 0.09 0.07 0.11 0.10 0.06 0.07 0.02 0.00 0.00 0.00 0.00 0.00 0.00 0.01 0.00 0.01 0.02 0.01 0.00 0.01
0.14 0.16 0.12 0.17 0.07 0.03 0.07 0.10 0.19 0.20 0.21 0.28 0.36 0.38 0.60 0.70 0.52 0.20 0.02 0.00 0.01 0.15 0.35 0.61 0.26 0.31 0.16 0.39 0.31 0.23 0.17 0.16 0.20 0.17 0.11 0.10 0.13 0.14 0.14 0.04 0.00 0.00 0.00 0.00 0.00 0.00 0.00 0.00 0.02 0.02 0.02 0.03 0.03 0.02
0.07 0.12 0.16 0.17 0.17 0.16 0.16 0.19 0.24 0.34 0.49 0.65 0.67 0.76 0.87 0.72 0.61 0.17 0.05 0.05 0.13 0.22 0.31 0.34 0.39 0.47 0.16 0.35 0.37 0.28 0.23 0.27 0.23 0.14 0.08 0.16 0.16 0.23 0.14 0.03 0.01 0.00 0.00 0.00 0.00 0.00 0.00 0.01 0.02 0.02 0.03 0.03 0.03 0.02
0.04 0.06 0.14 0.18 0.20 0.24 0.25 0.29 0.34 0.34 0.31 0.26 0.29 0.47 0.87 0.65 0.18 0.31 0.46 0.38 0.31 0.20 0.21 0.19 0.09 0.38 0.16 0.29 0.28 0.34 0.17 0.22 0.13 0.16 0.08 0.12 0.17 0.11 0.02 0.02 0.01 0.00 0.00 0.01 0.00 0.00 0.00 0.01 0.01 0.01 0.01 0.01 0.01 0.01
0.02 0.02 0.05 0.07 0.10 0.11 0.10 0.09 0.08 0.09 0.13 0.19 0.30 0.76 0.87 0.35 0.31 0.31 0.30 0.22 0.20 0.22 0.24 0.17 0.11 0.25 0.19 0.17 0.12 0.22 0.14 0.09 0.11 0.10 0.11 0.11 0.08 0.04 0.01 0.00 0.00 0.00 0.01 0.04 0.09 0.04 0.02 0.01 0.01 0.00 0.00 0.00 0.00 0.00
0.00 0.00 0.01 0.02 0.02 0.01 0.03 0.06 0.10 0.12 0.11 0.08 0.20 0.32 0.24 0.13 0.08 0.05 0.10 0.15 0.09 0.19 0.27 0.19 0.14 0.22 0.19 0.24 0.16 0.08 0.22 0.07 0.09 0.13 0.08 0.06 0.05 0.01 0.00 0.00 0.00 0.00 0.01 0.03 0.11 0.16 0.16 0.11 0.05 0.03 0.02 0.02 0.02 0.03
0.00 0.00 0.00 0.00 0.00 0.00 0.00 0.02 0.06 0.04 0.01 0.00 0.00 0.01 0.01 0.00 0.00 0.02 0.04 0.04 0.05 0.08 0.15 0.14 0.22 0.23 0.18 0.22 0.15 0.06 0.12 0.18 0.11 0.11 0.07 0.05 0.03 0.01 0.01 0.00 0.00 0.01 0.01 0.02 0.03 0.09 0.14 0.19 0.22 0.19 0.16 0.14 0.10 0.10
0.00 0.00 0.00 0.00 0.00 0.00 0.00 0.00 0.00 0.00 0.00 0.00 0.00 0.00 0.00 0.01 0.03 0.04 0.05 0.06 0.09 0.14 0.13 0.15 0.20 0.16 0.10 0.11 0.10 0.05 0.06 0.07 0.08 0.05 0.05 0.08 0.08 0.06 0.03 0.01 0.02 0.03 0.04 0.04 0.06 0.06 0.08 0.10 0.14 0.18 0.21 0.25 0.23 0.26
0.00 0.00 0.00 0.00 0.00 0.00 0.00 0.00 0.00 0.00 0.00 0.00 0.00 0.01 0.02 0.07 0.07 0.09 0.09 0.10 0.13 0.11 0.09 0.08 0.05 0.02 0.01 0.00 0.01 0.02 0.02 0.02 0.03 0.03 0.07 0.10 0.09 0.08 0.06 0.04 0.04 0.05 0.06 0.07 0.08 0.07 0.09 0.10 0.09 0.14 0.18 0.20 0.20 0.24
0.00 0.00 0.00 0.00 0.00 0.00 0.00 0.00 0.00 0.00 0.00 0.00 0.01 0.03 0.02 0.06 0.07 0.07 0.09 0.10 0.08 0.04 0.01 0.01 0.01 0.00 0.00 0.00 0.00 0.01 0.01 0.02 0.04 0.05 0.06 0.05 0.05 0.06 0.07 0.06 0.07 0.07 0.08 0.11 0.12 0.12 0.12 0.13 0.13 0.15 0.17 0.17 0.20 0.18
0.00 0.00 0.00 0.00 0.00 0.00 0.00 0.00 0.00 0.00 0.00 0.00 0.02 0.03 0.03 0.04 0.06 0.05 0.05 0.02 0.01 0.01 0.00 0.00 0.00 0.02 0.01 0.00 0.01 0.02 0.03 0.05 0.05 0.05 0.06 0.06 0.06 0.07 0.08 0.08 0.08 0.09 0.10 0.12 0.13 0.15 0.17 0.18 0.16 0.11 0.14 0.22 0.19 0.19
0.00 0.00 0.00 0.00 0.00 0.00 0.00 0.00 0.00 0.00 0.00 0.02 0.02 0.06 0.03 0.03 0.03 0.01 0.01 0.00 0.00 0.00 0.00 0.00 0.00 0.01 0.05 0.04 0.05 0.05 0.04 0.04 0.04 0.05 0.05 0.05 0.05 0.07 0.08 0.09 0.11 0.11 0.12 0.14 0.14 0.15 0.16 0.18 0.15 0.18 0.17 0.22 0.17 0.18
0.00 0.00 0.00 0.00 0.00 0.00 0.00 0.00 0.00 0.00 0.01 0.01 0.02 0.02 0.01 0.01 0.01 0.01 0.00 0.00 0.00 0.00 0.00 0.00 0.00 0.01 0.04 0.06 0.07 0.07 0.05 0.03 0.03 0.04 0.05 0.05 0.06 0.06 0.07 0.07 0.09 0.11 0.12 0.14 0.14 0.14 0.15 0.16 0.15 0.15 0.15 0.15 0.12 0.11
0.00 0.00 0.00 0.00 0.00 0.00 0.00 0.00 0.00 0.00 0.00 0.00 0.00 0.00 0.00 0.00 0.00 0.00 0.00 0.00 0.00 0.00 0.01 0.01 0.03 0.05 0.06 0.06 0.06 0.04 0.03 0.02 0.01 0.02 0.03 0.04 0.06 0.06 0.07 0.07 0.08 0.09 0.09 0.11 0.11 0.12 0.12 0.11 0.12 0.10 0.07 0.03 0.01 0.00
0.00 0.00 0.00 0.00 0.00 0.00 0.00 0.00 0.00 0.00 0.00 0.01 0.00 0.00 0.00 0.00 0.00 0.00 0.00 0.00 0.00 0.01 0.03 0.05 0.05 0.06 0.05 0.05 0.04 0.03 0.02 0.02 0.02 0.02 0.02 0.04 0.06 0.05 0.06 0.07 0.07 0.07 0.08 0.09 0.09 0.10 0.07 0.05 0.03 0.01 0.00 0.01 0.01 0.01
0.00 0.00 0.00 0.00 0.00 0.00 0.00 0.00 0.00 0.00 0.00 0.00 0.00 0.00 0.00 0.00 0.00 0.00 0.00 0.01 0.03 0.05 0.04 0.05 0.04 0.04 0.02 0.03 0.03 0.03 0.03 0.02 0.02 0.02 0.02 0.03 0.04 0.05 0.06 0.07 0.07 0.07 0.07 0.06 0.04 0.02 0.01 0.00 0.00 0.00 0.00 0.00 0.00 0.00
0.00 0.00 0.00 0.00 0.00 0.00 0.01 0.00 0.00 0.00 0.00 0.00 0.00 0.00 0.00 0.00 0.00 0.00 0.00 0.01 0.05 0.07 0.04 0.03 0.03 0.03 0.02 0.03 0.02 0.02 0.02 0.01 0.02 0.03 0.03 0.04 0.04 0.05 0.05 0.06 0.05 0.04 0.03 0.01 0.00 0.00 0.00 0.00 0.00 0.00 0.00 0.00 0.00 0.00
0.00 0.00 0.00 0.00 0.00 0.00 0.00 0.00 0.00 0.00 0.00 0.00 0.00 0.00 0.00 0.00 0.00 0.00 0.00 0.02 0.05 0.04 0.02 0.02 0.02 0.01 0.01 0.01 0.01 0.02 0.03 0.01 0.02 0.03 0.03 0.02 0.03 0.03 0.01 0.01 0.00 0.00 0.00 0.00 0.00 0.00 0.00 0.00 0.00 0.00 0.00 0.00 0.00 0.00
0.00 0.00 0.00 0.00 0.00 0.00 0.00 0.00 0.00 0.00 0.00 0.00 0.00 0.01 0.00 0.00 0.00 0.00 0.00 0.02 0.03 0.02 0.02 0.02 0.01 0.01 0.01 0.02 0.02 0.02 0.02 0.01 0.01 0.01 0.01 0.00 0.00 0.00 0.00 0.00 0.00 0.00 0.00 0.00 0.00 0.00 0.00 0.00 0.00 0.00 0.00 0.00 0.00 0.00
0.00 0.00 0.00 0.00 0.00 0.00 0.00 0.00 0.00 0.00 0.00 0.00 0.00 0.00 0.00 0.00 0.00 0.00 0.01 0.01 0.02 0.02 0.02 0.02 0.01 0.01 0.01 0.01 0.01 0.01 0.01 0.01 0.00 0.00 0.00 0.00 0.00 0.00 0.00 0.00 0.00 0.00 0.00 0.00 0.00 0.00 0.00 0.00 0.00 0.00 0.00 0.00 0.00 0.00
0.00 0.00 0.00 0.00 0.00 0.00 0.00 0.00 0.00 0.00 0.00 0.00 0.00 0.00 0.00 0.00 0.00 0.01 0.02 0.01 0.01 0.02 0.02 0.01 0.01 0.01 0.00 0.00 0.00 0.00 0.00 0.00 0.00 0.00 0.00 0.00 0.00 0.00 0.00 0.00 0.00 0.00 0.00 0.00 0.00 0.00 0.00 0.00 0.00 0.00 0.00 0.00 0.00 0.00
0.00 0.00 0.00 0.00 0.00 0.00 0.00 0.00 0.00 0.00 0.00 0.00 0.00 0.00 0.00 0.00 0.01 0.02 0.02 0.02 0.01 0.01 0.00 0.00 0.00 0.00 0.00 0.00 0.00 0.00 0.00 0.00 0.00 0.00 0.00 0.00 0.00 0.00 0.00 0.00 0.00 0.00 0.00 0.00 0.00 0.00 0.00 0.00 0.00 0.00 0.00 0.00 0.00 0.00
0.00 0.00 0.00 0.00 0.00 0.00 0.00 0.00 0.00 0.01 0.01 0.00 0.00 0.00 0.01 0.01 0.03 0.02 0.03 0.02 0.01 0.00 0.00 0.00 0.00 0.00 0.00 0.00 0.00 0.00 0.00 0.00 0.00 0.00 0.00 0.00 0.00 0.00 0.00 0.00 0.00 0.00 0.00 0.00 0.00 0.00 0.00 0.00 0.00 0.00 0.00 0.00 0.00 0.00
0.00 0.00 0.00 0.00 0.00 0.01 0.02 0.01 0.00 0.01 0.00 0.00 0.00 0.01 0.01 0.03 0.04 0.03 0.02 0.01 0.01 0.01 0.01 0.00 0.00 0.00 0.00 0.00 0.00 0.00 0.00 0.00 0.00 0.00 0.00 0.00 0.00 0.00 0.01 0.01 0.00 0.00 0.00 0.00 0.00 0.00 0.01 0.01 0.01 0.00 0.00 0.00 0.00 0.00
0.00 0.00 0.00 0.00 0.00 0.01 0.00 0.00 0.00 0.00 0.00 0.00 0.00 0.00 0.01 0.02 0.02 0.02 0.02 0.02 0.01 0.00 0.00 0.00 0.00 0.00 0.00 0.00 0.00 0.00 0.00 0.00 0.00 0.00 0.00 0.00 0.00 0.00 0.00 0.01 0.01 0.00 0.00 0.00 0.00 0.00 0.00 0.00 0.01 0.01 0.00 0.00 0.00 0.00
0.00 0.00 0.00 0.00 0.01 0.01 0.01 0.01 0.00 0.00 0.00 0.00 0.00 0.00 0.00 0.00 0.00 0.01 0.01 0.01 0.01 0.01 0.01 0.00 0.00 0.00 0.00 0.00 0.00 0.00 0.00 0.00 0.00 0.00 0.00 0.00 0.00 0.01 0.00 0.01 0.01 0.00 0.00 0.00 0.00 0.00 0.00 0.00 0.00 0.00 0.00 0.00 0.00 0.00
0.00 0.00 0.00 0.00 0.00 0.00 0.00 0.00 0.00 0.00 0.00 0.00 0.00 0.00 0.00 0.00 0.00 0.01 0.01 0.01 0.01 0.01 0.01 0.00 0.00 0.00 0.00 0.00 0.00 0.00 0.00 0.00 0.00 0.00 0.00 0.00 0.00 0.00 0.00 0.00 0.00 0.00 0.00 0.00 0.00 0.00 0.00 0.00 0.00 0.00 0.00 0.00 0.00 0.00

GFSWCAN_prec_precacc12_093.txt.gz
Total_Precipitation_Accumulation
0.02 0.02 0.02 0.02 0.03 0.03 0.03 0.04 0.04 0.05 0.06 0.06 0.07 0.05 0.03 0.05 0.10 0.16 0.11 0.21 0.52 0.40 0.04 0.02 0.02 0.04 0.07 0.18 0.23 0.25 0.24 0.25 0.30 0.19 0.10 0.06 0.04 0.04 0.02 0.08 0.17 0.15 0.07 0.06 0.04 0.11 0.06 0.01 0.11 0.36 0.50 0.28 0.46 0.48
0.03 0.05 0.04 0.02 0.01 0.02 0.02 0.03 0.04 0.05 0.07 0.06 0.04 0.06 0.08 0.06 0.09 0.15 0.12 0.10 0.31 0.41 0.11 0.05 0.03 0.02 0.06 0.09 0.16 0.46 0.17 0.07 0.03 0.06 0.07 0.10 0.09 0.06 0.04 0.03 0.05 0.07 0.09 0.19 0.08 0.10 0.14 0.15 0.16 0.03 0.01 0.01 0.02 0.06
0.08 0.05 0.02 0.01 0.02 0.02 0.02 0.02 0.03 0.04 0.05 0.05 0.04 0.08 0.08 0.12 0.13 0.12 0.10 0.12 0.29 0.40 0.09 0.06 0.03 0.00 0.00 0.08 0.14 0.20 0.21 0.13 0.08 0.08 0.15 0.17 0.11 0.08 0.07 0.04 0.07 0.04 0.04 0.15 0.08 0.11 0.14 0.13 0.17 0.03 0.00 0.00 0.00 0.00
0.06 0.02 0.01 0.01 0.01 0.01 0.01 0.01 0.02 0.03 0.04 0.07 0.08 0.07 0.10 0.13 0.23 0.17 0.11 0.08 0.07 0.09 0.09 0.03 0.00 0.01 0.00 0.01 0.16 0.06 0.06 0.06 0.11 0.12 0.17 0.18 0.08 0.06 0.06 0.04 0.03 0.09 0.21 0.10 0.12 0.10 0.05 0.08 0.02 0.00 0.00 0.00 0.00 0.00
0.03 0.03 0.01 0.02 0.02 0.01 0.01 0.01 0.01 0.01 0.02 0.06 0.09 0.10 0.09 0.15 0.30 0.40 0.21 0.04 0.02 0.08 0.12 0.02 0.00 0.00 0.00 0.02 0.03 0.06 0.12 0.11 0.16 0.15 0.12 0.08 0.07 0.10 0.08 0.04 0.06 0.07 0.31 0.28 0.49 0.20 0.08 0.12 0.00 0.00 0.00 0.00 0.00 0.00
0.06 0.05 0.08 0.07 0.02 0.01 0.01 0.01 0.01 0.01 0.01 0.04 0.10 0.12 0.11 0.19 0.62 1.45 1.41 0.49 0.07 0.13 0.21 0.11 0.03 0.01 0.00 0.02 0.04 0.06 0.08 0.15 0.27 0.25 0.14 0.11 0.06 0.15 0.14 0.12 0.05 0.00 0.01 0.02 0.03 0.03 0.00 0.00 0.00 0.00 0.00 0.00 0.00 0.00
0.12 0.09 0.14 0.09 0.04 0.04 0.02 0.03 0.04 0.06 0.03 0.04 0.08 0.16 0.18 0.43 1.17 0.93 0.34 0.16 0.03 0.20 0.24 0.12 0.11 0.04 0.04 0.04 0.07 0.14 0.16 0.15 0.28 0.31 0.19 0.14 0.16 0.19 0.17 0.27 0.09 0.07 0.02 0.00 0.00 0.00 0.00 0.00 0.00 0.00 0.00 0.00 0.00 0.00
0.14 0.12 0.13 0.13 0.12 0.09 0.07 0.09 0.15 0.13 0.08 0.10 0.19 0.28 0.51 0.91 0.84 0.28 0.06 0.00 0.02 0.15 0.15 0.09 0.17 0.17 0.13 0.13 0.14 0.16 0.19 0.21 0.17 0.19 0.13 0.13 0.20 0.28 0.34 0.07 0.00 0.02 0.02 0.00 0.00 0.00 0.00 0.00 0.00 0.00 0.00 0.00 0.00 0.01
0.08 0.11 0.16 0.18 0.29 0.33 0.28 0.22 0.28 0.28 0.30 0.41 0.60 0.98 1.44 1.20 0.99 0.40 0.06 0.04 0.07 0.13 0.12 0.05 0.24 0.41 0.17 0.18 0.18 0.17 0.16 0.34 0.28 0.10 0.09 0.20 0.25 0.34 0.17 0.05 0.03 0.01 0.00 0.00 0.00 0.00 0.00 0.00 0.00 0.00 0.00 0.00 0.00 0.00
0.04 0.06 0.10 0.14 0.21 0.39 0.48 0.48 0.40 0.37 0.37 0.45 0.63 0.81 1.16 0.59 0.17 0.18 0.31 0.42 0.24 0.13 0.14 0.09 0.11 0.35 0.29 0.22 0.17 0.25 0.12 0.21 0.18 0.16 0.12 0.15 0.16 0.08 0.01 0.01 0.01 0.00 0.00 0.00 0.00 0.00 0.00 0.00 0.00 0.00 0.00 0.00 0.00 0.00
0.02 0.05 0.02 0.03 0.07 0.16 0.23 0.26 0.26 0.24 0.25 0.24 0.23 0.59 0.65 0.28 0.25 0.23 0.25 0.17 0.10 0.09 0.04 0.04 0.16 0.24 0.22 0.33 0.13 0.26 0.16 0.11 0.15 0.12 0.14 0.11 0.07 0.04 0.01 0.00 0.00 0.00 0.00 0.00 0.00 0.01 0.01 0.01 0.01 0.01 0.00 0.00 0.00 0.01
0.04 0.04 0.01 0.01 0.01 0.01 0.03 0.08 0.12 0.12 0.06 0.01 0.12 0.28 0.26 0.26 0.19 0.12 0.08 0.12 0.08 0.13 0.12 0.14 0.19 0.27 0.19 0.39 0.34 0.11 0.24 0.10 0.12 0.09 0.10 0.10 0.07 0.01 0.00 0.00 0.00 0.00 0.00 0.00 0.00 0.01 0.01 0.02 0.02 0.01 0.01 0.02 0.02 0.03
0.06 0.02 0.00 0.00 0.00 0.00 0.00 0.01 0.02 0.01 0.01 0.00 0.00 0.02 0.03 0.04 0.04 0.06 0.05 0.05 0.07 0.06 0.12 0.13 0.22 0.24 0.18 0.41 0.34 0.11 0.14 0.21 0.07 0.10 0.09 0.07 0.02 0.00 0.00 0.00 0.00 0.00 0.00 0.00 0.01 0.01 0.01 0.02 0.02 0.03 0.04 0.07 0.08 0.09
0.00 0.00 0.00 0.00 0.00 0.00 0.00 0.00 0.00 0.00 0.00 0.00 0.00 0.00 0.00 0.01 0.02 0.03 0.04 0.05 0.07 0.11 0.12 0.17 0.24 0.20 0.17 0.27 0.40 0.11 0.05 0.06 0.13 0.09 0.05 0.06 0.03 0.01 0.01 0.01 0.01 0.01 0.01 0.01 0.02 0.02 0.03 0.04 0.05 0.05 0.08 0.12 0.15 0.20
0.00 0.00 0.00 0.00 0.00 0.00 0.00 0.00 0.00 0.00 0.00 0.00 0.00 0.02 0.03 0.06 0.05 0.07 0.07 0.10 0.15 0.12 0.15 0.23 0.17 0.10 0.10 0.17 0.10 0.06 0.05 0.04 0.05 0.06 0.07 0.05 0.02 0.01 0.01 0.02 0.02 0.02 0.02 0.03 0.03 0.03 0.05 0.06 0.05 0.08 0.10 0.10 0.12 0.16
0.00 0.00 0.00 0.00 0.00 0.00 0.00 0.00 0.00 0.00 0.00 0.00 0.02 0.06 0.06 0.11 0.09 0.08 0.12 0.17 0.13 0.16 0.20 0.23 0.18 0.11 0.08 0.10 0.04 0.04 0.04 0.03 0.08 0.08 0.07 0.02 0.02 0.03 0.03 0.02 0.02 0.02 0.03 0.04 0.05 0.05 0.05 0.06 0.08 0.09 0.10 0.10 0.12 0.12
0.00 0.00 0.00 0.00 0.00 0.00 0.00 0.00 0.00 0.00 0.00 0.01 0.04 0.06 0.06 0.07 0.09 0.11 0.12 0.08 0.07 0.11 0.11 0.08 0.05 0.07 0.04 0.02 0.03 0.03 0.07 0.08 0.06 0.04 0.03 0.03 0.03 0.03 0.03 0.04 0.03 0.04 0.04 0.04 0.06 0.07 0.09 0.10 0.09 0.07 0.08 0.13 0.12 0.12
0.00 0.00 0.00 0.00 0.00 0.00 0.00 0.00 0.00 0.00 0.01 0.03 0.04 0.08 0.05 0.05 0.06 0.05 0.04 0.02 0.02 0.02 0.01 0.01 0.00 0.00 0.02 0.03 0.05 0.06 0.04 0.04 0.02 0.03 0.03 0.03 0.03 0.03 0.03 0.04 0.04 0.04 0.04 0.05 0.06 0.06 0.07 0.09 0.08 0.09 0.09 0.12 0.10 0.10
0.00 0.00 0.00 0.00 0.00 0.00 0.00 0.00 0.00 0.00 0.02 0.03 0.04 0.04 0.03 0.03 0.02 0.01 0.00 0.00 0.00 0.00 0.00 0.00 0.00 0.02 0.06 0.11 0.10 0.08 0.07 0.04 0.03 0.03 0.03 0.03 0.02 0.02 0.02 0.02 0.03 0.05 0.05 0.06 0.06 0.06 0.07 0.08 0.06 0.06 0.06 0.06 0.06 0.05
0.00 0.00 0.00 0.00 0.00 0.00 0.00 0.00 0.00 0.00 0.01 0.01 0.01 0.01 0.01 0.02 0.01 0.00 0.00 0.00 0.00 0.00 0.00 0.02 0.06 0.10 0.09 0.11 0.06 0.05 0.05 0.04 0.02 0.03 0.04 0.04 0.05 0.05 0.06 0.04 0.03 0.03 0.03 0.04 0.04 0.04 0.04 0.03 0.04 0.04 0.03 0.02 0.00 0.00
0.00 0.00 0.00 0.00 0.00 0.00 0.00 0.00 0.00 0.00 0.00 0.00 0.00 0.00 0.01 0.00 0.00 0.00 0.00 0.00 0.00 0.02 0.04 0.05 0.05 0.05 0.03 0.04 0.03 0.01 0.02 0.04 0.06 0.03 0.02 0.04 0.04 0.03 0.04 0.05 0.06 0.05 0.04 0.04 0.04 0.04 0.03 0.02 0.02 0.01 0.00 0.01 0.01 0.00
0.00 0.00 0.00 0.00 0.00 0.00 0.00 0.00 0.00 0.00 0.00 0.00 0.00 0.00 0.01 0.01 0.00 0.00 0.00 0.00 0.03 0.06 0.06 0.06 0.05 0.02 0.01 0.02 0.02 0.02 0.02 0.01 0.01 0.01 0.01 0.03 0.04 0.04 0.05 0.05 0.03 0.04 0.04 0.05 0.03 0.03 0.02 0.01 0.00 0.00 0.01 0.01 0.00 0.00
0.00 0.00 0.00 0.00 0.00 0.00 0.01 0.01 0.00 0.00 0.00 0.00 0.00 0.00 0.00 0.00 0.00 0.00 0.00 0.02 0.05 0.05 0.02 0.02 0.02 0.02 0.02 0.02 0.01 0.01 0.01 0.01 0.01 0.02 0.02 0.02 0.02 0.03 0.03 0.04 0.04 0.04 0.03 0.02 0.01 0.01 0.00 0.00 0.00 0.00 0.00 0.00 0.00 0.00
0.00 0.00 0.00 0.00 0.00 0.00 0.00 0.00 0.00 0.00 0.00 0.00 0.00 0.00 0.00 0.00 0.00 0.00 0.01 0.03 0.04 0.03 0.01 0.02 0.02 0.02 0.01 0.01 0.01 0.02 0.02 0.01 0.01 0.02 0.02 0.01 0.01 0.01 0.01 0.00 0.00 0.00 0.00 0.00 0.00 0.00 0.00 0.00 0.00 0.00 0.00 0.00 0.00 0.00
0.00 0.00 0.00 0.00 0.00 0.00 0.00 0.00 0.00 0.00 0.00 0.00 0.00 0.00 0.00 0.00 0.00 0.00 0.01 0.03 0.03 0.02 0.02 0.02 0.02 0.01 0.02 0.01 0.01 0.01 0.01 0.00 0.01 0.00 0.00 0.00 0.01 0.01 0.00 0.00 0.00 0.00 0.00 0.01 0.00 0.00 0.00 0.00 0.00 0.00 0.00 0.00 0.00 0.00
0.00 0.00 0.00 0.00 0.00 0.00 0.00 0.00 0.00 0.00 0.00 0.00 0.00 0.00 0.00 0.00 0.00 0.00 0.02 0.03 0.03 0.03 0.04 0.03 0.02 0.01 0.01 0.01 0.01 0.00 0.00 0.00 0.00 0.00 0.00 0.00 0.00 0.01 0.01 0.00 0.01 0.00 0.00 0.00 0.00 0.00 0.00 0.00 0.00 0.00 0.00 0.00 0.00 0.00
0.00 0.00 0.00 0.00 0.00 0.00 0.00 0.00 0.00 0.00 0.00 0.00 0.00 0.00 0.00 0.00 0.00 0.01 0.02 0.02 0.02 0.01 0.01 0.01 0.01 0.01 0.00 0.00 0.00 0.00 0.00 0.00 0.00 0.00 0.00 0.00 0.00 0.00 0.00 0.01 0.01 0.00 0.00 0.00 0.00 0.00 0.00 0.00 0.00 0.00 0.00 0.00 0.00 0.00
0.00 0.00 0.00 0.00 0.00 0.00 0.00 0.00 0.00 0.00 0.00 0.00 0.00 0.00 0.00 0.00 0.02 0.03 0.02 0.02 0.01 0.00 0.00 0.00 0.00 0.00 0.00 0.00 0.00 0.00 0.00 0.00 0.00 0.00 0.00 0.00 0.00 0.00 0.00 0.00 0.00 0.00 0.00 0.00 0.00 0.00 0.00 0.00 0.00 0.00 0.00 0.00 0.00 0.00
0.00 0.00 0.00 0.00 0.00 0.00 0.00 0.00 0.00 0.00 0.00 0.00 0.00 0.00 0.00 0.02 0.03 0.02 0.02 0.01 0.01 0.01 0.00 0.00 0.01 0.00 0.00 0.00 0.00 0.00 0.00 0.00 0.01 0.00 0.00 0.01 0.01 0.01 0.00 0.00 0.00 0.01 0.01 0.00 0.00 0.00 0.00 0.00 0.00 0.00 0.00 0.00 0.00 0.00
0.00 0.00 0.00 0.00 0.00 0.01 0.03 0.01 0.01 0.01 0.00 0.00 0.00 0.01 0.02 0.04 0.05 0.03 0.03 0.03 0.03 0.03 0.01 0.01 0.01 0.01 0.01 0.01 0.00 0.00 0.00 0.00 0.00 0.01 0.01 0.01 0.01 0.01 0.01 0.01 0.01 0.01 0.01 0.02 0.01 0.01 0.00 0.00 0.00 0.00 0.00 0.00 0.00 0.01
0.00 0.00 0.00 0.00 0.01 0.02 0.02 0.01 0.01 0.00 0.00 0.00 0.00 0.00 0.01 0.02 0.02 0.02 0.03 0.02 0.01 0.00 0.01 0.01 0.01 0.01 0.00 0.00 0.01 0.01 0.01 0.00 0.00 0.00 0.00 0.00 0.00 0.01 0.01 0.01 0.01 0.01 0.00 0.00 0.00 0.01 0.01 0.00 0.00 0.01 0.01 0.00 0.00 0.00
0.00 0.00 0.00 0.00 0.01 0.01 0.03 0.02 0.00 0.00 0.00 0.00 0.00 0.00 0.01 0.00 0.01 0.01 0.01 0.02 0.02 0.02 0.02 0.02 0.02 0.01 0.00 0.00 0.00 0.00 0.00 0.00 0.00 0.00 0.00 0.00 0.01 0.00 0.00 0.00 0.00 0.01 0.01 0.00 0.00 0.00 0.00 0.00 0.00 0.00 0.00 0.00 0.00 0.00
0.00 0.00 0.00 0.00 0.00 0.00 0.00 0.00 0.00 0.00 0.00 0.00 0.01 0.00 0.00 0.00 0.01 0.01 0.01 0.02 0.04 0.03 0.02 0.01 0.00 0.00 0.00 0.00 0.00 0.00 0.00 0.00 0.00 0.00 0.00 0.00 0.00 0.00 0.00 0.00 0.00 0.00 0.00 0.00 0.00 0.00 0.00 0.00 0.00 0.00 0.00 0.00 0.00 0.00

GFSWCAN_prec_precacc12_099.txt.gz
Total_Precipitation_Accumulation
0.02 0.02 0.02 0.02 0.02 0.02 0.03 0.04 0.05 0.06 0.05 0.05 0.07 0.08 0.08 0.07 0.10 0.17 0.13 0.05 0.42 0.35 0.02 0.01 0.01 0.02 0.03 0.11 0.14 0.19 0.12 0.07 0.09 0.04 0.03 0.02 0.03 0.05 0.05 0.15 0.31 0.08 0.05 0.04 0.03 0.04 0.02 0.01 0.09 0.29 0.39 0.12 0.07 0.20
0.02 0.02 0.02 0.01 0.01 0.01 0.01 0.02 0.03 0.04 0.06 0.06 0.05 0.05 0.07 0.10 0.09 0.12 0.10 0.05 0.13 0.36 0.07 0.00 0.01 0.01 0.06 0.09 0.13 0.42 0.31 0.21 0.06 0.01 0.02 0.05 0.06 0.07 0.08 0.09 0.39 0.25 0.03 0.03 0.02 0.04 0.09 0.14 0.14 0.02 0.00 0.00 0.00 0.03
0.02 0.02 0.02 0.01 0.01 0.01 0.01 0.01 0.01 0.02 0.05 0.05 0.04 0.07 0.07 0.09 0.11 0.09 0.05 0.09 0.19 0.27 0.05 0.00 0.00 0.00 0.00 0.08 0.17 0.22 0.20 0.16 0.16 0.09 0.13 0.13 0.09 0.09 0.09 0.09 0.33 0.46 0.14 0.09 0.07 0.13 0.11 0.14 0.18 0.03 0.00 0.00 0.00 0.00
0.02 0.02 0.01 0.01 0.01 0.01 0.01 0.01 0.01 0.01 0.02 0.05 0.09 0.10 0.08 0.08 0.14 0.13 0.07 0.07 0.07 0.07 0.04 0.01 0.00 0.00 0.00 0.01 0.16 0.13 0.06 0.06 0.14 0.24 0.16 0.12 0.06 0.06 0.07 0.12 0.18 0.24 0.30 0.34 0.36 0.39 0.16 0.08 0.04 0.00 0.00 0.00 0.00 0.00
0.01 0.02 0.02 0.01 0.02 0.02 0.02 0.02 0.01 0.01 0.02 0.03 0.06 0.10 0.12 0.11 0.15 0.26 0.14 0.04 0.01 0.05 0.09 0.02 0.00 0.00 0.01 0.00 0.01 0.04 0.11 0.09 0.15 0.44 0.27 0.06 0.05 0.09 0.07 0.08 0.18 0.16 0.37 0.59 0.91 0.51 0.31 0.16 0.00 0.00 0.00 0.00 0.00 0.00
0.02 0.02 0.03 0.03 0.04 0.03 0.02 0.02 0.03 0.03 0.03 0.03 0.03 0.06 0.10 0.19 0.33 0.93 1.07 0.33 0.05 0.08 0.20 0.09 0.03 0.00 0.00 0.01 0.01 0.03 0.07 0.14 0.22 0.22 0.07 0.04 0.05 0.15 0.27 0.21 0.08 0.01 0.03 0.19 0.37 0.56 0.32 0.17 0.02 0.00 0.00 0.00 0.00 0.00
0.04 0.05 0.07 0.06 0.05 0.06 0.03 0.02 0.02 0.04 0.03 0.03 0.05 0.06 0.10 0.27 0.68 0.66 0.23 0.07 0.02 0.15 0.29 0.09 0.08 0.02 0.03 0.04 0.05 0.07 0.11 0.12 0.23 0.19 0.12 0.07 0.12 0.17 0.25 0.25 0.10 0.11 0.06 0.09 0.06 0.04 0.05 0.04 0.01 0.00 0.00 0.00 0.00 0.00
0.05 0.06 0.07 0.05 0.12 0.09 0.05 0.04 0.04 0.05 0.04 0.03 0.06 0.10 0.22 0.74 0.73 0.24 0.06 0.00 0.01 0.13 0.15 0.10 0.13 0.13 0.16 0.15 0.12 0.11 0.16 0.17 0.08 0.09 0.05 0.08 0.21 0.30 0.29 0.07 0.02 0.06 0.06 0.10 0.06 0.00 0.00 0.00 0.00 0.00 0.00 0.00 0.00 0.00
0.07 0.08 0.11 0.09 0.24 0.26 0.21 0.15 0.19 0.16 0.08 0.12 0.28 0.66 1.56 1.60 0.97 0.40 0.07 0.04 0.06 0.11 0.11 0.04 0.12 0.35 0.25 0.22 0.21 0.14 0.12 0.29 0.25 0.05 0.03 0.11 0.20 0.32 0.16 0.04 0.04 0.05 0.05 0.04 0.02 0.00 0.00 0.00 0.00 0.00 0.00 0.00 0.00 0.00
0.10 0.09 0.07 0.06 0.11 0.32 0.44 0.35 0.25 0.35 0.43 0.73 0.98 1.32 1.45 0.61 0.16 0.32 0.55 0.65 0.42 0.16 0.12 0.08 0.07 0.24 0.39 0.27 0.22 0.12 0.07 0.11 0.22 0.12 0.16 0.17 0.09 0.07 0.04 0.03 0.03 0.01 0.00 0.00 0.00 0.00 0.00 0.00 0.01 0.00 0.00 0.00 0.00 0.00
0.12 0.13 0.07 0.03 0.06 0.24 0.32 0.38 0.40 0.44 0.52 0.61 0.56 0.83 0.57 0.24 0.46 0.54 0.48 0.28 0.15 0.07 0.03 0.03 0.12 0.10 0.19 0.59 0.22 0.09 0.04 0.03 0.05 0.05 0.12 0.13 0.06 0.06 0.02 0.00 0.00 0.00 0.00 0.00 0.00 0.00 0.01 0.01 0.02 0.01 0.00 0.00 0.00 0.00
0.16 0.11 0.02 0.00 0.03 0.17 0.17 0.20 0.20 0.21 0.20 0.08 0.26 0.38 0.27 0.50 0.47 0.24 0.10 0.05 0.04 0.05 0.03 0.02 0.07 0.08 0.05 0.46 0.51 0.08 0.03 0.03 0.05 0.02 0.10 0.09 0.08 0.03 0.00 0.00 0.00 0.00 0.00 0.00 0.00 0.00 0.01 0.01 0.01 0.00 0.00 0.01 0.01 0.01
0.15 0.02 0.00 0.00 0.03 0.08 0.08 0.06 0.08 0.06 0.02 0.02 0.04 0.10 0.17 0.25 0.14 0.06 0.04 0.04 0.05 0.03 0.02 0.00 0.01 0.01 0.01 0.21 0.45 0.34 0.06 0.12 0.05 0.09 0.09 0.06 0.04 0.01 0.00 0.00 0.00 0.00 0.00 0.00 0.00 0.00 0.00 0.01 0.00 0.01 0.01 0.02 0.02 0.03
0.01 0.00 0.02 0.02 0.01 0.03 0.03 0.03 0.04 0.01 0.00 0.01 0.01 0.00 0.02 0.01 0.02 0.03 0.04 0.04 0.02 0.02 0.02 0.03 0.04 0.04 0.06 0.16 0.41 0.19 0.07 0.05 0.15 0.09 0.05 0.08 0.03 0.01 0.00 0.00 0.00 0.01 0.00 0.01 0.01 0.00 0.01 0.01 0.02 0.01 0.02 0.02 0.01 0.03
0.01 0.05 0.06 0.01 0.01 0.02 0.02 0.02 0.00 0.00 0.00 0.00 0.00 0.02 0.03 0.04 0.04 0.04 0.04 0.05 0.06 0.05 0.08 0.16 0.13 0.08 0.09 0.16 0.13 0.12 0.07 0.04 0.05 0.05 0.06 0.06 0.02 0.01 0.01 0.01 0.01 0.01 0.01 0.01 0.01 0.01 0.01 0.01 0.01 0.03 0.04 0.04 0.03 0.04
0.02 0.03 0.00 0.00 0.00 0.02 0.02 0.00 0.00 0.00 0.00 0.00 0.02 0.05 0.06 0.08 0.06 0.05 0.08 0.12 0.11 0.16 0.22 0.25 0.18 0.11 0.09 0.10 0.04 0.04 0.04 0.03 0.07 0.06 0.05 0.01 0.01 0.01 0.01 0.01 0.01 0.01 0.01 0.01 0.01 0.01 0.01 0.01 0.01 0.03 0.04 0.03 0.04 0.04
0.00 0.00 0.00 0.00 0.00 0.00 0.00 0.00 0.00 0.00 0.00 0.01 0.04 0.07 0.06 0.05 0.07 0.10 0.12 0.09 0.10 0.16 0.15 0.11 0.06 0.08 0.06 0.02 0.04 0.04 0.06 0.07 0.04 0.03 0.02 0.01 0.01 0.01 0.01 0.01 0.01 0.01 0.01 0.01 0.01 0.01 0.02 0.02 0.01 0.01 0.02 0.04 0.04 0.04
0.00 0.00 0.00 0.00 0.00 0.00 0.00 0.00 0.00 0.00 0.02 0.03 0.04 0.09 0.05 0.06 0.06 0.07 0.07 0.04 0.05 0.03 0.02 0.03 0.01 0.00 0.01 0.02 0.03 0.05 0.04 0.04 0.02 0.02 0.03 0.02 0.01 0.01 0.01 0.01 0.01 0.01 0.00 0.01 0.01 0.01 0.01 0.01 0.01 0.01 0.02 0.03 0.03 0.03
0.00 0.00 0.00 0.00 0.00 0.00 0.00 0.00 0.00 0.00 0.04 0.05 0.05 0.05 0.04 0.05 0.03 0.02 0.01 0.00 0.00 0.00 0.00 0.00 0.01 0.02 0.06 0.09 0.05 0.05 0.03 0.02 0.01 0.02 0.02 0.01 0.01 0.01 0.01 0.01 0.02 0.02 0.02 0.03 0.03 0.03 0.03 0.03 0.02 0.02 0.02 0.01 0.02 0.02
0.00 0.00 0.00 0.00 0.00 0.00 0.00 0.00 0.00 0.00 0.02 0.02 0.03 0.02 0.03 0.03 0.01 0.00 0.00 0.00 0.00 0.00 0.02 0.03 0.07 0.11 0.10 0.11 0.04 0.03 0.04 0.03 0.01 0.02 0.03 0.03 0.03 0.04 0.04 0.01 0.01 0.01 0.02 0.03 0.03 0.02 0.01 0.02 0.03 0.02 0.02 0.01 0.01 0.00
0.00 0.00 0.00 0.00 0.00 0.00 0.00 0.00 0.00 0.00 0.00 0.01 0.01 0.01 0.02 0.00 0.00 0.00 0.00 0.00 0.01 0.03 0.05 0.06 0.06 0.06 0.03 0.02 0.01 0.00 0.02 0.04 0.06 0.02 0.01 0.03 0.04 0.02 0.03 0.04 0.06 0.04 0.03 0.03 0.03 0.03 0.02 0.02 0.02 0.01 0.01 0.00 0.00 0.00
0.00 0.00 0.00 0.00 0.00 0.00 0.00 0.00 0.00 0.00 0.00 0.01 0.03 0.01 0.01 0.01 0.00 0.00 0.00 0.00 0.04 0.05 0.05 0.05 0.04 0.01 0.01 0.01 0.01 0.01 0.02 0.01 0.01 0.01 0.01 0.03 0.04 0.03 0.05 0.04 0.02 0.03 0.03 0.04 0.03 0.03 0.02 0.01 0.01 0.00 0.00 0.00 0.00 0.00
0.00 0.00 0.00 0.00 0.00 0.00 0.00 0.00 0.00 0.00 0.00 0.00 0.00 0.00 0.00 0.00 0.00 0.00 0.00 0.01 0.05 0.03 0.01 0.01 0.00 0.00 0.01 0.01 0.00 0.01 0.01 0.01 0.01 0.01 0.01 0.01 0.01 0.02 0.02 0.03 0.04 0.03 0.02 0.02 0.01 0.01 0.01 0.01 0.01 0.00 0.00 0.00 0.00 0.00
0.00 0.00 0.00 0.00 0.00 0.00 0.00 0.00 0.00 0.00 0.00 0.00 0.00 0.00 0.00 0.00 0.00 0.00 0.01 0.02 0.03 0.01 0.01 0.01 0.01 0.01 0.01 0.00 0.00 0.01 0.02 0.01 0.01 0.01 0.01 0.00 0.00 0.00 0.00 0.01 0.01 0.01 0.01 0.01 0.01 0.00 0.01 0.00 0.00 0.00 0.00 0.00 0.00 0.00
0.00 0.00 0.00 0.00 0.00 0.00 0.00 0.00 0.00 0.00 0.00 0.00 0.00 0.00 0.00 0.00 0.00 0.00 0.01 0.03 0.02 0.02 0.03 0.03 0.03 0.01 0.01 0.01 0.00 0.00 0.00 0.00 0.00 0.00 0.00 0.00 0.01 0.01 0.00 0.00 0.00 0.00 0.01 0.01 0.00 0.00 0.00 0.00 0.00 0.00 0.00 0.00 0.00 0.00
0.00 0.00 0.00 0.00 0.00 0.00 0.00 0.00 0.00 0.00 0.00 0.00 0.00 0.00 0.00 0.00 0.00 0.01 0.02 0.02 0.02 0.03 0.03 0.03 0.02 0.01 0.01 0.01 0.00 0.00 0.00 0.00 0.00 0.00 0.00 0.00 0.00 0.01 0.01 0.00 0.01 0.00 0.00 0.00 0.00 0.00 0.00 0.00 0.00 0.00 0.00 0.00 0.00 0.00
0.00 0.00 0.00 0.00 0.00 0.00 0.00 0.00 0.00 0.00 0.00 0.00 0.00 0.00 0.00 0.00 0.00 0.01 0.04 0.02 0.01 0.01 0.00 0.00 0.00 0.00 0.00 0.00 0.00 0.00 0.00 0.00 0.00 0.00 0.00 0.00 0.00 0.00 0.00 0.01 0.01 0.01 0.00 0.00 0.00 0.00 0.00 0.00 0.00 0.00 0.00 0.00 0.00 0.00
0.00 0.00 0.00 0.00 0.00 0.00 0.00 0.00 0.00 0.00 0.00 0.00 0.00 0.00 0.00 0.00 0.02 0.03 0.02 0.01 0.00 0.00 0.00 0.00 0.00 0.00 0.00 0.00 0.00 0.00 0.00 0.00 0.00 0.00 0.00 0.00 0.00 0.00 0.00 0.00 0.00 0.00 0.00 0.00 0.00 0.00 0.00 0.00 0.00 0.00 0.00 0.00 0.00 0.00
0.00 0.00 0.00 0.00 0.00 0.00 0.00 0.00 0.00 0.00 0.00 0.00 0.00 0.00 0.01 0.03 0.03 0.02 0.01 0.00 0.00 0.00 0.00 0.00 0.00 0.00 0.00 0.00 0.00 0.00 0.00 0.00 0.01 0.00 0.00 0.02 0.02 0.01 0.00 0.00 0.00 0.00 0.01 0.00 0.00 0.00 0.00 0.00 0.00 0.00 0.00 0.00 0.00 0.00
0.00 0.00 0.00 0.00 0.00 0.01 0.04 0.01 0.01 0.00 0.00 0.00 0.01 0.02 0.03 0.06 0.05 0.01 0.01 0.02 0.03 0.02 0.01 0.01 0.01 0.01 0.01 0.01 0.00 0.00 0.00 0.00 0.00 0.00 0.01 0.01 0.01 0.01 0.01 0.00 0.00 0.00 0.01 0.01 0.01 0.00 0.00 0.00 0.00 0.00 0.00 0.00 0.01 0.00
0.00 0.00 0.00 0.00 0.01 0.03 0.03 0.01 0.01 0.00 0.00 0.00 0.00 0.00 0.02 0.04 0.04 0.03 0.02 0.01 0.00 0.00 0.01 0.01 0.01 0.01 0.00 0.00 0.01 0.01 0.01 0.00 0.00 0.00 0.00 0.00 0.00 0.00 0.00 0.00 0.00 0.00 0.00 0.00 0.00 0.00 0.00 0.00 0.00 0.00 0.00 0.01 0.00 0.00
0.00 0.00 0.00 0.00 0.02 0.02 0.04 0.02 0.00 0.00 0.00 0.00 0.00 0.00 0.00 0.00 0.01 0.02 0.02 0.02 0.01 0.02 0.01 0.02 0.01 0.01 0.00 0.00 0.00 0.00 0.00 0.00 0.00 0.00 0.00 0.00 0.00 0.00 0.00 0.00 0.00 0.00 0.00 0.00 0.00 0.00 0.00 0.00 0.00 0.00 0.00 0.00 0.00 0.00
0.00 0.00 0.00 0.00 0.00 0.01 0.01 0.00 0.00 0.00 0.00 0.00 0.00 0.01 0.01 0.00 0.01 0.01 0.01 0.02 0.04 0.02 0.01 0.01 0.00 0.00 0.00 0.00 0.00 0.00 0.00 0.00 0.00 0.00 0.00 0.00 0.00 0.00 0.00 0.00 0.00 0.00 0.00 0.00 0.00 0.00 0.00 0.00 0.00 0.00 0.00 0.00 0.00 0.00

GFSWCAN_prec_precacc12_102.txt.gz
Total_Precipitation_Accumulation
0.04 0.02 0.02 0.02 0.02 0.02 0.02 0.02 0.03 0.04 0.05 0.06 0.07 0.09 0.10 0.10 0.16 0.22 0.12 0.03 0.34 0.25 0.01 0.00 0.00 0.01 0.01 0.04 0.05 0.09 0.09 0.04 0.03 0.02 0.01 0.00 0.00 0.03 0.05 0.14 0.25 0.05 0.03 0.01 0.02 0.03 0.00 0.00 0.02 0.22 0.37 0.10 0.00 0.00
0.03 0.02 0.02 0.02 0.01 0.02 0.02 0.01 0.01 0.03 0.05 0.05 0.05 0.05 0.08 0.14 0.17 0.15 0.06 0.03 0.10 0.35 0.08 0.00 0.00 0.01 0.05 0.06 0.05 0.24 0.28 0.20 0.11 0.15 0.05 0.03 0.04 0.06 0.08 0.10 0.38 0.34 0.13 0.07 0.00 0.01 0.03 0.02 0.08 0.02 0.00 0.00 0.00 0.00
0.03 0.03 0.02 0.01 0.01 0.01 0.01 0.01 0.01 0.01 0.03 0.04 0.04 0.07 0.07 0.09 0.16 0.14 0.03 0.05 0.21 0.31 0.06 0.00 0.00 0.00 0.00 0.06 0.15 0.17 0.17 0.14 0.15 0.16 0.10 0.10 0.07 0.07 0.06 0.08 0.32 0.54 0.38 0.31 0.09 0.16 0.07 0.06 0.16 0.03 0.00 0.00 0.00 0.00
0.03 0.02 0.02 0.01 0.01 0.01 0.01 0.01 0.01 0.01 0.02 0.04 0.08 0.09 0.08 0.09 0.14 0.14 0.05 0.05 0.07 0.10 0.03 0.00 0.00 0.00 0.00 0.01 0.16 0.13 0.04 0.05 0.12 0.20 0.11 0.10 0.03 0.05 0.06 0.12 0.17 0.25 0.50 0.69 0.48 0.44 0.18 0.03 0.02 0.02 0.00 0.00 0.00 0.00
0.03 0.02 0.01 0.01 0.02 0.02 0.02 0.02 0.02 0.02 0.02 0.03 0.06 0.10 0.13 0.13 0.16 0.16 0.08 0.03 0.01 0.04 0.07 0.01 0.00 0.00 0.01 0.00 0.00 0.02 0.07 0.07 0.11 0.40 0.37 0.16 0.03 0.07 0.06 0.08 0.19 0.18 0.49 0.66 0.98 0.64 0.37 0.15 0.07 0.01 0.00 0.00 0.00 0.00
0.04 0.03 0.02 0.03 0.04 0.03 0.03 0.03 0.03 0.04 0.05 0.05 0.03 0.08 0.11 0.23 0.42 0.65 0.81 0.25 0.03 0.03 0.16 0.04 0.01 0.00 0.00 0.01 0.00 0.00 0.03 0.10 0.12 0.19 0.30 0.09 0.07 0.12 0.26 0.18 0.10 0.05 0.05 0.22 0.42 0.61 0.40 0.25 0.09 0.02 0.00 0.00 0.00 0.00
0.04 0.03 0.05 0.05 0.04 0.06 0.04 0.02 0.03 0.05 0.06 0.08 0.08 0.07 0.09 0.29 0.76 0.42 0.16 0.04 0.01 0.10 0.28 0.07 0.03 0.02 0.03 0.04 0.01 0.02 0.06 0.07 0.08 0.11 0.11 0.05 0.07 0.11 0.22 0.15 0.08 0.13 0.08 0.11 0.09 0.09 0.14 0.11 0.05 0.01 0.00 0.00 0.00 0.00
0.04 0.04 0.04 0.03 0.06 0.06 0.04 0.04 0.03 0.04 0.05 0.04 0.09 0.10 0.14 0.60 0.71 0.27 0.04 0.00 0.01 0.11 0.13 0.07 0.03 0.08 0.16 0.13 0.09 0.07 0.07 0.11 0.06 0.04 0.03 0.05 0.15 0.18 0.18 0.05 0.03 0.07 0.07 0.11 0.08 0.00 0.02 0.01 0.00 0.00 0.00 0.00 0.00 0.00
0.06 0.05 0.05 0.04 0.08 0.12 0.12 0.13 0.16 0.13 0.06 0.08 0.14 0.45 1.25 1.53 0.83 0.33 0.09 0.04 0.05 0.09 0.07 0.03 0.06 0.22 0.21 0.19 0.18 0.11 0.06 0.21 0.23 0.04 0.01 0.05 0.16 0.23 0.10 0.04 0.04 0.05 0.05 0.05 0.03 0.00 0.00 0.00 0.00 0.00 0.00 0.00 0.00 0.00
0.09 0.09 0.07 0.05 0.09 0.22 0.32 0.21 0.15 0.28 0.34 0.63 0.98 1.62 1.54 0.57 0.10 0.35 0.73 0.78 0.45 0.17 0.08 0.06 0.03 0.19 0.34 0.26 0.26 0.12 0.06 0.05 0.19 0.12 0.14 0.14 0.07 0.07 0.05 0.03 0.03 0.01 0.00 0.00 0.00 0.00 0.00 0.00 0.01 0.00 0.00 0.00 0.00 0.00
0.12 0.15 0.11 0.09 0.13 0.33 0.40 0.40 0.31 0.42 0.60 0.99 0.95 0.94 0.49 0.18 0.46 0.68 0.57 0.34 0.17 0.07 0.02 0.02 0.06 0.07 0.19 0.57 0.40 0.16 0.06 0.02 0.04 0.08 0.12 0.11 0.06 0.07 0.03 0.01 0.00 0.00 0.00 0.00 0.00 0.00 0.00 0.01 0.02 0.01 0.00 0.00 0.00 0.00
0.20 0.16 0.09 0.06 0.08 0.29 0.29 0.30 0.34 0.34 0.40 0.26 0.35 0.39 0.24 0.56 0.65 0.40 0.18 0.05 0.02 0.02 0.02 0.01 0.05 0.06 0.05 0.52 0.77 0.22 0.11 0.02 0.01 0.03 0.10 0.06 0.08 0.04 0.01 0.00 0.00 0.00 0.00 0.00 0.00 0.00 0.00 0.01 0.01 0.00 0.00 0.01 0.01 0.01
0.21 0.08 0.04 0.02 0.08 0.20 0.14 0.26 0.27 0.12 0.04 0.04 0.09 0.19 0.27 0.39 0.24 0.08 0.04 0.03 0.02 0.03 0.02 0.00 0.01 0.00 0.00 0.06 0.62 0.47 0.04 0.01 0.02 0.06 0.06 0.05 0.05 0.02 0.00 0.00 0.00 0.00 0.00 0.00 0.00 0.00 0.00 0.01 0.00 0.00 0.01 0.01 0.01 0.02
0.06 0.02 0.03 0.03 0.09 0.11 0.10 0.17 0.08 0.03 0.02 0.05 0.04 0.02 0.04 0.01 0.02 0.03 0.02 0.02 0.01 0.02 0.02 0.01 0.00 0.00 0.00 0.03 0.40 0.27 0.12 0.05 0.12 0.05 0.03 0.06 0.03 0.01 0.00 0.00 0.00 0.00 0.00 0.00 0.01 0.00 0.00 0.01 0.01 0.01 0.01 0.01 0.01 0.02
0.09 0.17 0.12 0.06 0.08 0.06 0.05 0.03 0.01 0.00 0.00 0.00 0.00 0.01 0.02 0.03 0.03 0.04 0.03 0.02 0.01 0.02 0.03 0.03 0.02 0.01 0.00 0.02 0.09 0.10 0.04 0.02 0.04 0.03 0.04 0.05 0.02 0.01 0.00 0.00 0.00 0.00 0.00 0.00 0.00 0.00 0.01 0.00 0.00 0.02 0.02 0.02 0.01 0.02
0.11 0.07 0.05 0.04 0.03 0.04 0.03 0.00 0.00 0.00 0.00 0.00 0.02 0.03 0.05 0.04 0.03 0.02 0.03 0.04 0.04 0.05 0.09 0.11 0.07 0.03 0.04 0.06 0.03 0.02 0.03 0.02 0.04 0.04 0.03 0.01 0.00 0.00 0.00 0.00 0.00 0.00 0.00 0.00 0.00 0.00 0.00 0.00 0.00 0.01 0.01 0.01 0.02 0.01
0.02 0.01 0.03 0.04 0.03 0.01 0.00 0.00 0.00 0.00 0.00 0.01 0.04 0.07 0.05 0.04 0.05 0.06 0.07 0.07 0.09 0.13 0.13 0.09 0.05 0.06 0.04 0.02 0.03 0.03 0.04 0.04 0.03 0.02 0.01 0.00 0.00 0.00 0.00 0.01 0.01 0.00 0.00 0.00 0.00 0.00 0.01 0.00 0.00 0.00 0.01 0.02 0.01 0.01
0.00 0.00 0.01 0.02 0.01 0.00 0.00 0.00 0.00 0.00 0.01 0.02 0.03 0.07 0.04 0.05 0.05 0.06 0.07 0.05 0.06 0.03 0.02 0.03 0.01 0.00 0.01 0.01 0.02 0.03 0.03 0.04 0.02 0.01 0.02 0.01 0.01 0.01 0.00 0.00 0.00 0.00 0.00 0.00 0.00 0.00 0.00 0.00 0.00 0.00 0.01 0.01 0.00 0.01
0.00 0.02 0.04 0.03 0.00 0.00 0.00 0.00 0.00 0.00 0.04 0.04 0.05 0.04 0.03 0.04 0.03 0.03 0.02 0.00 0.00 0.00 0.00 0.00 0.01 0.02 0.05 0.06 0.03 0.03 0.02 0.01 0.01 0.01 0.02 0.01 0.01 0.00 0.00 0.01 0.01 0.01 0.01 0.02 0.02 0.02 0.02 0.01 0.01 0.01 0.01 0.00 0.00 0.00
0.02 0.03 0.02 0.00 0.00 0.00 0.00 0.00 0.00 0.00 0.01 0.02 0.02 0.02 0.03 0.03 0.01 0.00 0.00 0.00 0.00 0.01 0.02 0.03 0.06 0.09 0.08 0.09 0.03 0.02 0.02 0.02 0.00 0.01 0.02 0.03 0.03 0.03 0.02 0.01 0.00 0.01 0.01 0.02 0.02 0.02 0.02 0.02 0.03 0.02 0.01 0.01 0.00 0.00
0.00 0.00 0.00 0.00 0.00 0.00 0.00 0.00 0.00 0.00 0.00 0.01 0.01 0.01 0.01 0.00 0.00 0.00 0.00 0.00 0.00 0.02 0.04 0.06 0.06 0.06 0.03 0.02 0.00 0.00 0.01 0.03 0.04 0.00 0.01 0.03 0.03 0.02 0.03 0.04 0.05 0.03 0.02 0.02 0.02 0.03 0.02 0.02 0.02 0.01 0.01 0.00 0.00 0.00
0.00 0.00 0.00 0.00 0.00 0.00 0.00 0.00 0.00 0.00 0.00 0.01 0.04 0.01 0.00 0.00 0.00 0.00 0.00 0.00 0.02 0.04 0.04 0.04 0.02 0.01 0.01 0.01 0.01 0.01 0.01 0.01 0.00 0.00 0.01 0.02 0.03 0.02 0.04 0.03 0.02 0.02 0.03 0.03 0.02 0.02 0.02 0.02 0.01 0.00 0.00 0.00 0.00 0.00
0.00 0.00 0.00 0.00 0.00 0.00 0.00 0.00 0.00 0.00 0.00 0.00 0.00 0.00 0.00 0.00 0.00 0.00 0.00 0.01 0.04 0.02 0.00 0.00 0.00 0.00 0.00 0.01 0.00 0.01 0.01 0.00 0.01 0.01 0.01 0.01 0.01 0.01 0.01 0.03 0.03 0.02 0.02 0.02 0.01 0.01 0.01 0.01 0.00 0.00 0.00 0.00 0.00 0.00
0.00 0.00 0.00 0.00 0.00 0.00 0.00 0.00 0.00 0.00 0.00 0.00 0.00 0.00 0.00 0.00 0.00 0.00 0.00 0.01 0.02 0.01 0.01 0.01 0.01 0.01 0.00 0.00 0.00 0.01 0.02 0.00 0.00 0.01 0.01 0.00 0.00 0.00 0.00 0.01 0.01 0.01 0.01 0.00 0.00 0.00 0.00 0.00 0.00 0.00 0.00 0.00 0.00 0.00
0.00 0.00 0.00 0.00 0.00 0.00 0.00 0.00 0.00 0.00 0.00 0.00 0.00 0.00 0.00 0.00 0.00 0.00 0.00 0.02 0.01 0.01 0.02 0.03 0.02 0.01 0.00 0.00 0.00 0.00 0.00 0.00 0.00 0.00 0.00 0.00 0.00 0.01 0.00 0.00 0.00 0.01 0.01 0.01 0.00 0.00 0.00 0.00 0.00 0.00 0.00 0.00 0.00 0.00
0.00 0.00 0.00 0.00 0.00 0.00 0.00 0.00 0.00 0.00 0.00 0.00 0.00 0.00 0.00 0.00 0.00 0.01 0.01 0.01 0.01 0.02 0.02 0.01 0.01 0.00 0.00 0.00 0.00 0.00 0.00 0.00 0.00 0.00 0.00 0.00 0.00 0.01 0.01 0.00 0.01 0.00 0.00 0.00 0.00 0.00 0.00 0.00 0.00 0.00 0.00 0.00 0.00 0.00
0.00 0.00 0.00 0.00 0.00 0.00 0.00 0.00 0.00 0.00 0.00 0.00 0.00 0.00 0.00 0.00 0.00 0.01 0.04 0.01 0.00 0.00 0.00 0.00 0.00 0.00 0.00 0.00 0.00 0.00 0.00 0.00 0.00 0.00 0.00 0.00 0.00 0.00 0.00 0.01 0.00 0.01 0.00 0.00 0.00 0.00 0.00 0.00 0.00 0.00 0.00 0.00 0.00 0.00
0.00 0.00 0.00 0.00 0.00 0.00 0.00 0.00 0.00 0.00 0.00 0.00 0.00 0.00 0.00 0.00 0.01 0.02 0.01 0.01 0.00 0.00 0.00 0.00 0.00 0.00 0.00 0.00 0.00 0.00 0.00 0.00 0.00 0.00 0.00 0.00 0.00 0.00 0.00 0.00 0.00 0.00 0.00 0.00 0.00 0.00 0.00 0.00 0.00 0.00 0.00 0.00 0.00 0.00
0.00 0.00 0.00 0.00 0.00 0.00 0.00 0.00 0.00 0.00 0.00 0.00 0.00 0.00 0.01 0.02 0.02 0.02 0.00 0.00 0.00 0.00 0.00 0.00 0.00 0.00 0.00 0.00 0.00 0.00 0.00 0.00 0.00 0.00 0.00 0.01 0.01 0.00 0.00 0.00 0.00 0.00 0.01 0.00 0.00 0.00 0.00 0.00 0.00 0.00 0.00 0.00 0.00 0.00
0.00 0.00 0.00 0.00 0.00 0.01 0.04 0.02 0.01 0.00 0.00 0.00 0.01 0.02 0.03 0.06 0.04 0.01 0.00 0.01 0.01 0.01 0.00 0.00 0.01 0.01 0.00 0.00 0.00 0.00 0.00 0.00 0.00 0.00 0.01 0.00 0.00 0.01 0.00 0.00 0.00 0.00 0.00 0.01 0.00 0.00 0.00 0.00 0.00 0.00 0.00 0.00 0.00 0.00
0.00 0.00 0.00 0.00 0.01 0.02 0.03 0.01 0.00 0.00 0.00 0.00 0.00 0.00 0.02 0.04 0.04 0.03 0.01 0.01 0.00 0.00 0.00 0.00 0.00 0.00 0.00 0.00 0.00 0.00 0.00 0.00 0.00 0.00 0.00 0.00 0.00 0.00 0.00 0.00 0.00 0.00 0.00 0.00 0.00 0.00 0.00 0.00 0.00 0.00 0.01 0.01 0.00 0.00
0.00 0.00 0.00 0.00 0.02 0.02 0.03 0.01 0.00 0.00 0.00 0.00 0.00 0.00 0.00 0.00 0.01 0.02 0.02 0.02 0.01 0.01 0.01 0.01 0.00 0.00 0.00 0.00 0.00 0.00 0.00 0.00 0.00 0.00 0.00 0.00 0.00 0.00 0.00 0.00 0.00 0.00 0.00 0.00 0.00 0.00 0.00 0.00 0.00 0.00 0.00 0.00 0.00 0.00
0.00 0.00 0.00 0.00 0.00 0.01 0.01 0.00 0.00 0.00 0.00 0.00 0.00 0.01 0.01 0.00 0.00 0.01 0.01 0.01 0.02 0.01 0.00 0.00 0.00 0.00 0.00 0.00 0.00 0.00 0.00 0.00 0.00 0.00 0.00 0.00 0.00 0.00 0.00 0.00 0.00 0.00 0.00 0.00 0.00 0.00 0.00 0.00 0.00 0.00 0.00 0.00 0.00 0.00